GFSSE_prec_pwat_084.txt.gz
Precipitable_Water
1.80 1.91 1.95 1.95 1.85 1.84 1.86 1.88 1.89 1.90 1.82 1.72 1.71 1.70 1.63 1.64 1.64 1.66 1.73 1.66 1.69 1.70 1.71 1.76 1.78 1.85 1.86 1.81 1.75 1.53 1.48 1.53 1.44 1.50 1.64 1.70 1.75 1.79 1.84 1.58 1.54 1.66 1.59
1.83 1.88 1.90 1.90 1.78 1.60 1.55 1.51 1.47 1.53 1.60 1.60 1.60 1.66 1.67 1.58 1.57 1.62 1.70 1.63 1.61 1.69 1.76 1.79 1.90 1.96 1.87 1.77 1.62 1.70 1.65 1.56 1.52 1.46 1.46 1.58 1.57 1.56 1.56 1.37 1.64 1.64 1.57
1.73 1.75 1.74 1.63 1.48 1.39 1.43 1.66 1.53 1.49 1.47 1.50 1.43 1.42 1.52 1.59 1.62 1.59 1.60 1.72 1.77 1.83 1.78 1.91 1.98 1.94 1.90 1.79 1.74 1.75 1.72 1.75 1.87 1.69 1.30 1.25 1.32 1.33 1.43 1.51 1.63 1.64 1.51
1.65 1.59 1.48 1.43 1.60 1.55 1.77 1.91 1.76 1.81 1.79 1.68 1.76 1.67 1.59 1.74 1.85 1.72 1.76 1.82 1.90 1.95 1.90 1.97 1.96 1.92 1.88 1.73 1.73 1.71 1.64 1.61 1.79 1.86 1.69 1.58 1.62 1.69 1.55 1.56 1.70 1.70 1.53
1.61 1.55 1.43 1.44 1.71 1.76 1.75 1.89 1.90 1.92 2.04 1.99 1.89 1.91 1.83 1.81 1.84 1.90 1.86 1.87 1.94 1.95 2.00 2.01 1.97 1.82 1.78 1.55 1.53 1.59 1.64 1.71 1.68 1.58 1.65 1.62 1.75 1.60 1.60 1.69 1.66 1.72 1.70
1.63 1.47 1.54 1.59 1.81 1.93 1.80 1.84 1.88 1.91 1.96 2.02 1.97 1.88 1.96 1.85 1.84 1.89 1.93 1.91 1.89 1.89 1.99 1.93 1.92 1.80 1.67 1.60 1.65 1.61 1.73 1.78 1.50 1.35 1.44 1.54 1.52 1.51 1.58 1.53 1.46 1.47 1.58
1.65 1.50 1.69 1.71 1.86 1.87 1.85 1.84 1.84 1.85 1.93 1.87 1.92 1.80 1.74 1.72 1.70 1.80 1.88 1.87 1.88 1.94 1.92 1.88 1.80 1.70 1.61 1.61 1.57 1.62 1.91 1.89 1.66 1.49 1.40 1.36 1.55 1.72 1.69 1.56 1.41 1.58 1.41
1.71 1.66 1.79 1.83 1.88 1.84 1.88 1.82 1.80 1.81 1.79 1.77 1.70 1.65 1.63 1.67 1.66 1.77 1.82 1.89 2.01 2.06 1.95 1.90 1.75 1.56 1.51 1.49 1.47 1.56 1.76 1.77 1.57 1.64 1.64 1.57 1.61 1.67 1.44 1.46 1.57 1.70 1.47
1.74 1.65 1.74 1.85 1.84 1.83 1.81 1.75 1.73 1.74 1.65 1.58 1.55 1.58 1.55 1.49 1.65 1.83 1.87 1.90 2.04 1.97 1.90 1.71 1.48 1.43 1.37 1.33 1.37 1.48 1.74 1.69 1.59 1.66 1.61 1.63 1.53 1.39 1.38 1.49 1.64 1.57 1.44
1.65 1.65 1.78 1.79 1.81 1.75 1.77 1.69 1.62 1.58 1.52 1.56 1.58 1.62 1.53 1.47 1.54 1.72 1.80 1.93 1.97 1.93 1.80 1.71 1.37 1.22 1.24 1.33 1.47 1.61 1.92 1.92 1.74 1.66 1.50 1.59 1.51 1.47 1.42 1.30 1.39 1.36 1.31
1.66 1.75 1.82 1.84 1.93 1.78 1.60 1.63 1.67 1.62 1.70 1.73 1.80 1.90 1.86 1.65 1.65 1.78 1.77 1.88 1.90 1.83 1.83 1.92 1.66 1.58 1.63 1.53 1.48 1.63 1.87 1.80 1.74 1.66 1.63 1.49 1.42 1.46 1.54 1.31 1.26 1.22 1.14
1.60 1.79 2.11 1.71 1.70 1.66 1.63 1.75 1.82 1.68 1.64 1.75 2.02 1.75 1.80 1.63 1.54 1.65 1.75 1.79 1.78 1.76 1.83 1.89 1.87 1.56 1.89 1.75 1.58 1.61 1.69 1.68 1.64 1.41 1.49 1.33 1.27 1.31 1.28 1.31 1.32 1.26 1.29
1.63 1.68 1.70 1.64 1.77 1.79 1.74 1.86 1.97 1.64 1.55 1.79 1.75 1.74 1.61 1.35 1.42 1.57 1.65 1.74 1.81 1.80 1.88 2.10 1.82 1.75 1.91 1.81 1.65 1.42 1.49 1.57 1.49 1.23 1.15 1.21 1.23 1.28 1.16 1.19 1.28 1.37 1.37
1.68 1.65 1.57 1.64 2.00 1.67 1.65 1.83 1.72 1.68 1.56 1.53 1.56 1.79 1.64 1.69 1.81 1.90 1.84 2.05 1.78 1.96 1.45 1.73 1.74 1.74 1.60 1.54 1.46 1.42 1.50 1.59 1.51 1.33 1.17 1.17 1.26 1.30 1.22 1.30 1.36 1.37 1.41
1.48 1.52 1.49 1.59 1.70 1.77 1.68 1.81 1.67 1.69 1.62 1.39 1.71 1.66 1.80 1.73 1.92 1.80 1.58 1.77 1.88 1.89 1.82 1.73 1.91 1.76 1.63 1.74 1.54 1.35 1.36 1.48 1.53 1.51 1.43 1.26 1.20 1.29 1.36 1.40 1.37 1.41 1.42
1.47 1.63 1.52 1.53 1.52 1.62 1.63 1.55 1.62 1.68 1.56 1.59 1.68 1.83 1.76 1.79 1.92 2.28 1.92 2.02 1.81 1.83 1.74 1.49 1.57 1.69 1.58 1.51 1.43 1.51 1.44 1.34 1.59 1.53 1.49 1.40 1.33 1.19 1.25 1.29 1.26 1.25 1.28
1.47 1.49 1.43 1.39 1.60 1.62 1.49 1.72 1.79 1.61 1.89 1.59 1.44 1.75 1.89 1.91 1.83 1.92 1.72 1.82 1.79 1.67 1.78 1.87 1.70 1.65 1.72 1.60 1.52 1.54 1.49 1.49 1.42 1.48 1.51 1.47 1.53 1.57 1.28 1.22 1.24 1.28 1.30
1.50 1.45 1.39 1.41 1.48 1.54 1.58 1.82 1.92 1.95 1.92 1.74 1.63 1.54 1.75 1.73 1.82 1.85 1.63 1.57 1.91 1.89 1.82 1.80 1.68 1.53 1.57 1.52 1.43 1.44 1.44 1.40 1.40 1.38 1.36 1.48 1.58 1.69 1.52 1.25 1.29 1.31 1.34
1.44 1.37 1.52 1.43 1.42 1.65 1.63 1.85 1.94 1.82 1.87 1.92 1.78 1.82 1.72 1.59 1.75 1.77 1.69 1.63 1.73 1.97 1.73 1.66 1.62 1.54 1.56 1.48 1.45 1.40 1.43 1.37 1.50 1.39 1.27 1.39 1.43 1.66 1.56 1.39 1.54 1.46 1.38
1.39 1.35 1.52 1.44 1.44 1.55 1.44 1.87 1.78 1.96 1.88 1.93 1.85 1.90 1.86 1.83 1.70 1.78 1.74 1.59 1.78 1.59 1.52 1.72 1.64 1.55 1.51 1.58 1.37 1.32 1.27 1.37 1.34 1.35 1.39 1.55 1.56 1.60 1.61 1.41 1.60 1.60 1.44
1.28 1.31 1.40 1.37 1.40 1.51 1.26 1.55 1.55 1.48 1.73 1.87 1.90 1.90 1.82 1.84 1.82 1.76 1.63 1.53 1.74 1.48 1.59 1.56 1.57 1.51 1.44 1.45 1.39 1.37 1.25 1.22 1.26 1.23 1.47 1.62 1.49 1.63 1.42 1.48 1.64 1.60 1.55
1.27 1.29 1.32 1.35 1.34 1.48 1.45 1.46 1.59 1.72 1.61 1.72 1.89 1.79 1.94 1.84 1.70 1.88 1.85 1.71 1.75 1.65 1.40 1.49 1.56 1.49 1.34 1.34 1.31 1.35 1.13 1.18 1.30 1.25 1.27 1.38 1.46 1.52 1.45 1.48 1.43 1.42 1.53
1.32 1.32 1.28 1.33 1.34 1.41 1.49 1.52 1.50 1.59 1.62 1.69 1.83 1.75 1.76 1.85 1.72 2.03 1.74 1.81 1.73 1.47 1.37 1.37 1.58 1.30 1.18 1.36 1.44 1.39 1.17 1.11 1.17 1.23 1.19 1.31 1.25 1.40 1.39 1.35 1.42 1.39 1.53
1.30 1.34 1.34 1.34 1.33 1.43 1.65 1.41 1.36 1.45 1.39 1.42 1.61 1.85 1.82 1.81 1.75 1.62 1.65 1.79 1.75 1.76 1.63 1.37 1.53 1.48 1.34 1.23 1.36 1.41 1.43 1.49 1.11 1.09 1.21 1.02 1.31 1.30 1.29 1.47 1.47 1.48 1.47
1.27 1.17 1.31 1.30 1.30 1.38 1.43 1.52 1.48 1.37 1.69 1.91 1.81 1.83 1.88 1.81 1.89 1.70 1.67 1.67 1.63 1.71 1.69 1.62 1.41 1.48 1.49 1.45 1.46 1.31 1.26 1.41 1.47 1.29 1.05 1.08 1.23 1.38 1.38 1.50 1.44 1.48 1.51
1.35 1.24 1.23 1.22 1.22 1.30 1.31 1.54 1.56 1.59 1.82 1.82 1.83 1.76 1.77 1.80 1.76 1.79 1.74 1.72 1.62 1.63 1.52 1.41 1.35 1.35 1.54 1.52 1.40 1.32 1.29 1.22 1.29 1.32 1.20 1.28 1.21 1.34 1.46 1.46 1.45 1.48 1.55

GFSSE_prec_pwat_087.txt.gz
Precipitable_Water
1.74 1.93 1.97 1.96 1.97 1.98 1.99 1.96 1.93 1.84 1.73 1.72 1.66 1.60 1.64 1.65 1.66 1.68 1.70 1.71 1.68 1.75 1.80 1.85 1.83 1.75 1.71 1.49 1.50 1.53 1.48 1.52 1.66 1.73 1.79 1.79 1.77 1.57 1.62 1.66 1.59 1.64 1.67
1.79 1.93 1.90 1.77 1.68 1.69 1.63 1.53 1.55 1.56 1.57 1.59 1.70 1.64 1.59 1.58 1.61 1.64 1.58 1.64 1.72 1.78 1.88 1.95 1.84 1.71 1.62 1.65 1.60 1.53 1.57 1.57 1.46 1.57 1.56 1.52 1.51 1.49 1.62 1.60 1.48 1.58 1.72
1.78 1.88 1.85 1.63 1.48 1.41 1.48 1.49 1.46 1.44 1.44 1.39 1.47 1.56 1.55 1.56 1.54 1.58 1.65 1.77 1.84 1.81 1.90 1.88 1.84 1.69 1.72 1.74 1.72 1.74 1.84 1.80 1.63 1.43 1.31 1.37 1.49 1.54 1.59 1.63 1.58 1.41 1.51
1.72 1.72 1.54 1.43 1.42 1.73 1.77 1.64 1.67 1.67 1.63 1.66 1.63 1.60 1.67 1.74 1.69 1.69 1.79 1.90 1.92 1.94 1.91 1.89 1.84 1.72 1.74 1.73 1.76 1.73 1.79 1.83 1.81 1.66 1.50 1.60 1.52 1.56 1.66 1.72 1.69 1.53 1.54
1.46 1.40 1.49 1.61 1.61 1.78 1.83 1.83 1.85 1.90 1.86 1.82 1.82 1.73 1.75 1.74 1.81 1.84 1.82 1.89 1.94 1.99 1.98 1.86 1.72 1.58 1.63 1.68 1.72 1.78 1.74 1.69 1.75 1.64 1.60 1.56 1.60 1.70 1.69 1.66 1.63 1.65 1.41
1.32 1.37 1.62 1.78 1.74 1.77 1.76 1.81 1.86 1.87 1.94 1.91 1.84 1.84 1.81 1.79 1.84 1.86 1.85 1.89 1.91 1.96 1.87 1.79 1.68 1.57 1.57 1.62 1.64 1.79 1.69 1.48 1.54 1.52 1.40 1.42 1.53 1.59 1.44 1.40 1.54 1.55 1.53
1.33 1.48 1.72 1.82 1.80 1.74 1.74 1.78 1.78 1.79 1.83 1.84 1.78 1.75 1.72 1.69 1.74 1.84 1.87 1.93 1.96 1.87 1.79 1.72 1.61 1.57 1.60 1.58 1.74 1.81 1.80 1.52 1.39 1.27 1.34 1.62 1.68 1.51 1.46 1.54 1.52 1.39 1.49
1.40 1.57 1.75 1.81 1.79 1.76 1.72 1.71 1.74 1.72 1.72 1.69 1.60 1.58 1.63 1.66 1.75 1.80 1.88 2.01 1.92 1.75 1.78 1.61 1.47 1.40 1.41 1.55 1.69 1.72 1.68 1.59 1.58 1.47 1.44 1.55 1.51 1.38 1.47 1.64 1.62 1.39 1.37
1.56 1.60 1.68 1.75 1.77 1.74 1.67 1.67 1.62 1.59 1.61 1.64 1.56 1.57 1.61 1.70 1.75 1.80 1.92 1.97 1.88 1.71 1.51 1.41 1.31 1.26 1.40 1.52 1.65 1.73 1.69 1.70 1.59 1.50 1.49 1.34 1.31 1.39 1.50 1.64 1.49 1.36 1.36
1.55 1.66 1.65 1.70 1.69 1.68 1.61 1.55 1.56 1.52 1.58 1.66 1.63 1.55 1.52 1.66 1.74 1.78 1.89 1.87 1.83 1.75 1.45 1.34 1.30 1.44 1.47 1.57 1.78 1.72 1.80 1.76 1.71 1.48 1.41 1.38 1.41 1.30 1.27 1.31 1.26 1.22 1.26
1.69 1.77 1.79 1.77 1.66 1.52 1.53 1.51 1.57 1.68 1.76 1.87 1.75 1.65 1.48 1.53 1.66 1.76 1.77 1.79 1.88 1.87 1.67 1.54 1.44 1.51 1.54 1.59 1.75 1.84 1.72 1.71 1.65 1.40 1.33 1.32 1.38 1.46 1.23 1.22 1.27 1.23 1.24
1.65 1.69 1.71 1.68 1.51 1.52 1.54 1.57 1.56 1.61 1.75 1.77 1.78 1.67 1.66 1.65 1.64 1.75 1.79 1.83 1.88 1.88 1.84 1.76 1.75 1.67 1.60 1.58 1.62 1.71 1.65 1.64 1.56 1.21 1.14 1.12 1.24 1.20 1.26 1.37 1.31 1.26 1.26
1.62 1.72 1.57 1.58 1.68 1.72 1.62 1.62 1.45 1.57 1.74 1.80 1.62 1.62 1.65 1.62 1.66 1.70 1.71 1.72 1.81 1.74 1.74 1.75 1.77 1.73 1.71 1.66 1.74 1.76 1.71 1.64 1.42 1.18 1.09 1.12 1.17 1.19 1.27 1.29 1.34 1.32 1.36
1.54 1.56 1.58 1.68 1.66 1.77 1.75 1.72 1.47 1.52 1.53 1.70 1.72 1.65 1.56 1.56 1.63 1.76 1.95 1.76 1.88 1.72 1.65 1.60 1.64 1.69 1.75 1.67 1.59 1.60 1.60 1.58 1.45 1.37 1.23 1.21 1.32 1.28 1.28 1.28 1.31 1.35 1.41
1.70 1.52 1.56 1.80 1.73 1.67 1.70 1.62 1.55 1.44 1.43 1.54 1.61 1.65 1.82 1.99 1.82 1.92 1.81 1.76 1.88 1.79 1.62 1.57 1.58 1.63 1.66 1.50 1.43 1.41 1.50 1.51 1.50 1.43 1.32 1.29 1.27 1.30 1.27 1.29 1.33 1.39 1.40
1.54 1.48 1.52 1.47 1.69 1.72 1.70 1.67 1.63 1.61 1.41 1.60 1.64 1.75 1.87 1.92 1.91 1.71 1.82 1.79 1.79 1.88 1.69 1.59 1.64 1.56 1.50 1.45 1.40 1.32 1.41 1.40 1.45 1.39 1.44 1.45 1.44 1.19 1.21 1.24 1.29 1.30 1.31
1.41 1.53 1.46 1.44 1.62 1.62 1.61 1.74 1.63 1.62 1.58 1.51 1.74 1.70 1.85 1.78 1.67 1.68 1.71 1.70 1.81 1.93 1.74 1.77 1.68 1.71 1.57 1.43 1.43 1.44 1.47 1.35 1.33 1.33 1.47 1.52 1.56 1.41 1.24 1.31 1.31 1.31 1.33
1.33 1.41 1.40 1.36 1.58 1.50 1.67 1.75 1.79 1.81 1.73 1.65 1.50 1.72 1.71 1.71 1.82 1.60 1.70 1.74 1.86 1.83 1.80 1.68 1.64 1.56 1.49 1.44 1.36 1.37 1.43 1.42 1.34 1.41 1.43 1.45 1.51 1.51 1.36 1.44 1.41 1.36 1.39
1.47 1.40 1.34 1.31 1.39 1.47 1.56 1.85 1.82 1.91 1.81 1.72 1.61 1.62 1.66 1.71 1.82 1.64 1.76 1.69 1.90 1.68 1.68 1.62 1.59 1.67 1.52 1.39 1.40 1.42 1.42 1.31 1.32 1.46 1.55 1.55 1.48 1.50 1.48 1.49 1.61 1.49 1.44
1.47 1.41 1.34 1.34 1.26 1.54 1.63 1.75 1.72 1.89 1.81 1.85 1.79 1.84 1.76 1.69 1.77 1.69 1.65 1.72 1.70 1.54 1.61 1.69 1.58 1.54 1.59 1.33 1.31 1.31 1.37 1.30 1.31 1.48 1.55 1.56 1.53 1.49 1.49 1.51 1.60 1.60 1.51
1.35 1.37 1.47 1.37 1.28 1.38 1.54 1.53 1.60 1.73 1.65 1.79 1.93 1.86 1.82 1.79 1.76 1.81 1.63 1.59 1.59 1.59 1.53 1.56 1.56 1.49 1.49 1.40 1.30 1.29 1.26 1.23 1.24 1.41 1.55 1.54 1.51 1.48 1.52 1.52 1.54 1.53 1.56
1.24 1.31 1.35 1.38 1.37 1.33 1.39 1.56 1.55 1.55 1.66 1.77 1.84 1.77 1.81 1.78 1.86 1.79 1.58 1.55 1.70 1.35 1.43 1.58 1.46 1.35 1.31 1.32 1.21 1.17 1.01 1.07 1.22 1.35 1.42 1.45 1.43 1.48 1.46 1.45 1.38 1.42 1.55
1.27 1.14 1.32 1.32 1.33 1.32 1.41 1.57 1.67 1.70 1.64 1.71 1.75 1.79 1.79 1.83 1.73 1.87 1.74 1.78 1.67 1.33 1.34 1.58 1.60 1.36 1.22 1.38 1.43 1.25 1.03 0.93 1.12 1.28 1.27 1.33 1.20 1.35 1.40 1.41 1.46 1.48 1.50
1.31 1.32 1.28 1.28 1.31 1.32 1.54 1.50 1.51 1.45 1.40 1.62 1.72 1.77 1.73 1.77 1.70 1.68 1.77 1.77 1.64 1.59 1.29 1.40 1.51 1.40 1.33 1.25 1.43 1.40 1.42 1.29 1.08 1.05 1.26 1.22 1.32 1.31 1.34 1.41 1.42 1.47 1.51
1.36 1.36 1.36 1.23 1.28 1.26 1.48 1.51 1.47 1.53 1.63 1.70 1.75 1.98 1.80 1.76 1.77 1.69 1.63 1.68 1.67 1.67 1.56 1.33 1.53 1.39 1.44 1.38 1.47 1.44 1.44 1.35 1.42 1.28 1.09 1.14 1.22 1.32 1.40 1.44 1.42 1.45 1.50
1.42 1.39 1.36 1.24 1.21 1.27 1.44 1.44 1.44 1.51 1.67 1.80 1.71 1.87 1.78 1.78 1.76 1.69 1.72 1.70 1.63 1.72 1.49 1.44 1.53 1.45 1.41 1.46 1.50 1.42 1.42 1.37 1.34 1.33 1.24 1.23 1.20 1.30 1.41 1.48 1.40 1.45 1.52

GFSSE_prec_pwat_093.txt.gz
Precipitable_Water
1.56 1.83 1.95 1.97 2.02 2.04 2.05 1.97 1.78 1.67 1.64 1.67 1.71 1.73 1.77 1.78 1.78 1.78 1.80 1.77 1.91 1.77 1.81 1.60 1.55 1.45 1.43 1.44 1.52 1.64 1.67 1.71 1.66 1.57 1.64 1.69 1.68 1.69 1.72 1.72 1.73 1.84 1.87
1.66 1.85 1.92 1.99 2.03 2.05 1.98 1.83 1.77 1.77 1.62 1.69 1.68 1.67 1.65 1.67 1.73 1.70 1.82 1.86 1.87 1.80 1.67 1.62 1.63 1.53 1.60 1.64 1.69 1.75 1.82 1.80 1.61 1.48 1.57 1.72 1.52 1.61 1.71 1.74 1.85 1.95 1.88
1.76 1.90 1.96 1.95 1.85 1.74 1.65 1.65 1.62 1.75 1.77 1.63 1.60 1.60 1.57 1.56 1.69 1.79 1.81 1.97 1.90 1.78 1.73 1.74 1.64 1.61 1.63 1.68 1.60 1.51 1.45 1.44 1.34 1.42 1.61 1.63 1.70 1.46 1.42 1.63 1.80 1.82 1.75
1.72 1.73 1.72 1.64 1.57 1.61 1.54 1.50 1.43 1.46 1.62 1.65 1.57 1.67 1.61 1.64 1.76 1.83 1.91 1.95 1.86 1.75 1.77 1.76 1.75 1.81 1.81 1.81 1.82 1.69 1.59 1.51 1.62 1.48 1.51 1.67 1.73 1.70 1.51 1.61 1.60 1.71 1.77
1.65 1.62 1.49 1.51 1.63 1.60 1.66 1.76 1.64 1.59 1.60 1.70 1.67 1.72 1.80 1.80 1.90 1.88 1.92 1.86 1.85 1.78 1.78 1.75 1.71 1.73 1.82 1.80 1.76 1.75 1.65 1.60 1.53 1.45 1.61 1.65 1.67 1.66 1.62 1.37 1.37 1.40 1.54
1.57 1.37 1.52 1.77 1.83 1.87 1.87 1.92 1.91 1.84 1.70 1.76 1.77 1.81 1.87 1.92 1.87 1.88 1.90 1.92 1.83 1.70 1.71 1.66 1.65 1.80 1.86 1.73 1.63 1.66 1.64 1.56 1.47 1.53 1.52 1.45 1.38 1.54 1.55 1.55 1.28 1.26 1.34
1.33 1.52 1.78 1.77 1.83 1.81 1.84 1.88 1.91 1.93 1.79 1.80 1.80 1.86 1.81 1.90 1.90 1.89 1.89 1.77 1.76 1.65 1.61 1.70 1.72 1.80 1.80 1.74 1.73 1.71 1.58 1.50 1.40 1.51 1.42 1.40 1.47 1.53 1.35 1.49 1.25 1.31 1.39
1.46 1.56 1.66 1.74 1.76 1.78 1.79 1.79 1.80 1.84 1.82 1.76 1.72 1.70 1.88 1.87 1.86 1.87 1.84 1.77 1.72 1.64 1.55 1.61 1.64 1.72 1.75 1.71 1.67 1.60 1.46 1.44 1.47 1.41 1.37 1.40 1.55 1.62 1.48 1.29 1.32 1.36 1.38
1.59 1.62 1.66 1.70 1.74 1.75 1.79 1.77 1.73 1.66 1.63 1.68 1.65 1.69 1.86 1.82 1.89 1.89 1.78 1.67 1.64 1.50 1.47 1.51 1.64 1.72 1.73 1.78 1.75 1.70 1.63 1.51 1.39 1.32 1.26 1.37 1.51 1.56 1.40 1.35 1.38 1.45 1.55
1.62 1.65 1.64 1.67 1.67 1.71 1.74 1.69 1.64 1.63 1.62 1.66 1.65 1.73 1.79 1.93 1.92 1.74 1.62 1.60 1.49 1.43 1.49 1.61 1.75 1.87 1.80 1.82 1.83 1.71 1.62 1.50 1.36 1.26 1.26 1.28 1.37 1.45 1.36 1.27 1.29 1.30 1.27
1.55 1.60 1.62 1.61 1.59 1.58 1.59 1.60 1.58 1.58 1.56 1.55 1.69 1.79 1.89 1.92 1.81 1.65 1.64 1.57 1.54 1.51 1.55 1.61 1.72 1.87 1.85 1.90 1.84 1.78 1.60 1.41 1.28 1.23 1.26 1.35 1.26 1.26 1.25 1.25 1.23 1.22 1.22
1.41 1.51 1.54 1.54 1.47 1.49 1.58 1.67 1.67 1.59 1.49 1.47 1.70 1.73 1.83 1.80 1.78 1.82 1.82 1.76 1.74 1.70 1.66 1.66 1.64 1.77 1.77 1.76 1.72 1.65 1.52 1.41 1.22 1.19 1.24 1.39 1.37 1.29 1.31 1.30 1.25 1.26 1.29
1.49 1.56 1.44 1.47 1.44 1.43 1.55 1.68 1.72 1.62 1.47 1.50 1.64 1.71 1.75 1.77 1.87 1.89 1.83 1.68 1.65 1.77 1.69 1.64 1.64 1.64 1.62 1.61 1.54 1.51 1.51 1.43 1.32 1.30 1.27 1.37 1.35 1.34 1.38 1.41 1.37 1.36 1.37
1.38 1.37 1.47 1.50 1.50 1.42 1.49 1.62 1.67 1.53 1.55 1.59 1.66 1.75 1.75 1.74 1.76 1.71 1.70 1.71 1.63 1.70 1.63 1.64 1.69 1.66 1.58 1.56 1.54 1.48 1.44 1.45 1.37 1.31 1.19 1.32 1.36 1.37 1.41 1.38 1.38 1.37 1.36
1.43 1.46 1.51 1.56 1.55 1.44 1.49 1.56 1.65 1.54 1.55 1.64 1.68 1.71 1.77 1.68 1.60 1.68 1.71 1.67 1.59 1.61 1.58 1.53 1.53 1.48 1.41 1.34 1.39 1.40 1.41 1.41 1.40 1.39 1.39 1.31 1.35 1.35 1.35 1.36 1.37 1.38 1.39
1.43 1.51 1.59 1.59 1.62 1.51 1.45 1.47 1.56 1.54 1.59 1.68 1.73 1.65 1.74 1.85 1.83 1.72 1.72 1.60 1.61 1.65 1.59 1.51 1.53 1.48 1.36 1.29 1.32 1.34 1.41 1.45 1.41 1.43 1.48 1.47 1.33 1.34 1.36 1.37 1.41 1.43 1.45
1.42 1.54 1.55 1.61 1.65 1.55 1.49 1.52 1.58 1.57 1.56 1.65 1.80 1.83 1.79 1.78 1.83 1.77 1.72 1.62 1.60 1.67 1.55 1.52 1.50 1.51 1.37 1.37 1.31 1.41 1.43 1.43 1.41 1.45 1.49 1.44 1.40 1.42 1.43 1.47 1.52 1.53 1.50
1.45 1.40 1.41 1.54 1.59 1.63 1.57 1.49 1.55 1.63 1.62 1.68 1.79 1.79 1.77 1.77 1.75 1.70 1.66 1.65 1.71 1.65 1.60 1.56 1.48 1.41 1.36 1.32 1.28 1.39 1.49 1.55 1.53 1.50 1.44 1.43 1.45 1.48 1.54 1.61 1.54 1.52 1.50
1.45 1.40 1.39 1.46 1.45 1.64 1.65 1.60 1.59 1.55 1.70 1.67 1.70 1.71 1.76 1.64 1.66 1.69 1.67 1.67 1.72 1.63 1.54 1.54 1.45 1.39 1.33 1.31 1.27 1.37 1.48 1.52 1.54 1.52 1.47 1.48 1.47 1.51 1.53 1.52 1.52 1.53 1.53
1.48 1.45 1.45 1.45 1.47 1.60 1.66 1.69 1.75 1.71 1.63 1.63 1.66 1.65 1.68 1.74 1.70 1.70 1.73 1.76 1.70 1.61 1.56 1.62 1.48 1.39 1.36 1.28 1.23 1.26 1.39 1.49 1.54 1.52 1.53 1.56 1.59 1.54 1.53 1.52 1.51 1.53 1.58
1.46 1.40 1.44 1.35 1.43 1.50 1.60 1.73 1.71 1.62 1.68 1.73 1.83 1.81 1.65 1.75 1.71 1.58 1.56 1.68 1.64 1.62 1.59 1.57 1.56 1.37 1.30 1.37 1.21 1.14 1.25 1.36 1.42 1.48 1.51 1.51 1.53 1.54 1.51 1.48 1.51 1.56 1.59
1.34 1.35 1.37 1.29 1.33 1.45 1.52 1.64 1.69 1.80 1.73 1.79 1.77 1.83 1.86 1.69 1.67 1.70 1.73 1.55 1.56 1.57 1.63 1.57 1.57 1.37 1.32 1.38 1.17 1.04 0.97 1.12 1.27 1.35 1.42 1.43 1.44 1.46 1.45 1.52 1.55 1.56 1.63
1.37 1.29 1.20 1.32 1.27 1.39 1.47 1.59 1.66 1.70 1.72 1.70 1.73 1.70 1.70 1.76 1.72 1.65 1.63 1.58 1.56 1.50 1.45 1.50 1.49 1.39 1.23 1.34 1.35 1.10 1.02 1.01 1.16 1.25 1.26 1.30 1.36 1.39 1.42 1.47 1.49 1.55 1.60
1.37 1.36 1.28 1.25 1.32 1.32 1.45 1.45 1.49 1.43 1.47 1.65 1.76 1.79 1.78 1.78 1.81 1.78 1.73 1.67 1.64 1.37 1.49 1.53 1.57 1.43 1.39 1.24 1.34 1.37 1.40 1.40 1.14 0.99 1.18 1.22 1.28 1.28 1.32 1.39 1.42 1.46 1.54
1.46 1.39 1.32 1.23 1.23 1.33 1.38 1.42 1.45 1.49 1.52 1.69 1.73 1.80 1.82 1.72 1.77 1.77 1.81 1.69 1.63 1.47 1.37 1.57 1.54 1.44 1.48 1.48 1.40 1.32 1.33 1.46 1.48 1.21 1.02 1.10 1.21 1.25 1.36 1.36 1.40 1.44 1.49
1.49 1.44 1.43 1.29 1.21 1.26 1.29 1.39 1.43 1.39 1.54 1.63 1.70 1.82 1.82 1.71 1.65 1.63 1.73 1.77 1.76 1.67 1.55 1.39 1.53 1.43 1.51 1.52 1.51 1.44 1.33 1.34 1.39 1.34 1.23 1.24 1.22 1.27 1.41 1.42 1.45 1.47 1.55

GFSSE_prec_pwat_096.txt.gz
Precipitable_Water
1.61 1.84 1.96 2.00 1.99 1.96 1.97 1.78 1.73 1.74 1.72 1.73 1.76 1.81 1.81 1.84 1.87 1.84 1.80 1.82 1.85 1.70 1.58 1.43 1.45 1.43 1.45 1.58 1.65 1.62 1.57 1.54 1.63 1.62 1.64 1.68 1.72 1.75 1.67 1.79 1.84 1.84 1.88
1.67 1.82 1.98 2.01 2.01 2.07 1.98 1.86 1.71 1.70 1.65 1.67 1.69 1.77 1.78 1.78 1.81 1.87 1.94 1.97 1.87 1.67 1.61 1.50 1.62 1.62 1.66 1.70 1.77 1.76 1.74 1.56 1.54 1.66 1.60 1.52 1.69 1.75 1.80 1.90 1.90 1.80 1.68
1.64 1.86 1.89 1.93 1.94 1.90 1.73 1.69 1.81 1.69 1.70 1.69 1.71 1.62 1.67 1.78 1.78 1.86 2.00 1.99 1.73 1.73 1.72 1.59 1.57 1.60 1.59 1.65 1.63 1.57 1.41 1.39 1.48 1.59 1.63 1.56 1.42 1.56 1.76 1.84 1.81 1.67 1.65
1.79 1.86 1.90 1.87 1.70 1.60 1.57 1.54 1.64 1.74 1.61 1.54 1.59 1.59 1.58 1.76 1.82 1.97 2.01 1.89 1.79 1.84 1.77 1.77 1.80 1.82 1.76 1.64 1.52 1.45 1.53 1.58 1.46 1.55 1.62 1.69 1.62 1.53 1.70 1.66 1.85 1.69 1.64
1.69 1.75 1.65 1.51 1.54 1.48 1.56 1.51 1.44 1.58 1.72 1.59 1.83 1.83 1.80 1.87 1.91 1.93 1.96 1.89 1.83 1.85 1.78 1.77 1.83 1.85 1.78 1.80 1.72 1.64 1.63 1.47 1.50 1.60 1.63 1.69 1.66 1.60 1.39 1.36 1.44 1.56 1.58
1.55 1.50 1.53 1.65 1.75 1.85 1.87 1.74 1.75 1.65 1.78 1.74 1.80 1.83 1.92 1.91 1.90 1.85 1.86 1.92 1.77 1.74 1.67 1.72 1.84 1.79 1.65 1.63 1.65 1.66 1.60 1.49 1.54 1.53 1.47 1.43 1.59 1.66 1.56 1.26 1.32 1.42 1.48
1.39 1.44 1.73 1.88 1.89 1.89 1.98 1.97 1.91 1.74 1.84 1.84 1.82 1.91 1.93 1.92 1.90 1.94 1.89 1.75 1.69 1.65 1.67 1.76 1.83 1.77 1.73 1.75 1.70 1.63 1.59 1.53 1.49 1.41 1.36 1.51 1.52 1.33 1.45 1.28 1.37 1.36 1.40
1.33 1.74 1.82 1.88 1.83 1.87 1.90 1.92 2.00 1.90 1.84 1.83 1.81 1.88 1.89 1.90 1.89 1.80 1.76 1.76 1.63 1.61 1.64 1.71 1.76 1.73 1.75 1.71 1.64 1.54 1.47 1.45 1.47 1.40 1.40 1.55 1.63 1.46 1.29 1.35 1.36 1.35 1.31
1.53 1.60 1.71 1.78 1.81 1.83 1.85 1.82 1.80 1.80 1.82 1.71 1.73 1.91 1.85 1.91 1.91 1.84 1.73 1.67 1.53 1.51 1.63 1.75 1.74 1.79 1.80 1.72 1.68 1.65 1.56 1.44 1.37 1.32 1.35 1.47 1.56 1.46 1.35 1.38 1.36 1.45 1.48
1.57 1.65 1.64 1.69 1.70 1.76 1.77 1.76 1.72 1.64 1.73 1.76 1.81 1.94 1.92 2.02 1.90 1.64 1.60 1.52 1.47 1.53 1.67 1.80 1.82 1.78 1.92 1.74 1.69 1.63 1.50 1.37 1.29 1.26 1.29 1.32 1.50 1.46 1.28 1.27 1.26 1.27 1.30
1.53 1.58 1.58 1.54 1.61 1.67 1.63 1.69 1.68 1.55 1.76 1.74 1.85 1.90 1.98 1.79 1.65 1.62 1.54 1.48 1.52 1.59 1.70 1.81 1.88 1.84 1.85 1.83 1.75 1.60 1.47 1.33 1.25 1.20 1.28 1.30 1.26 1.27 1.27 1.25 1.25 1.30 1.35
1.35 1.46 1.52 1.51 1.49 1.52 1.54 1.57 1.54 1.61 1.55 1.74 1.81 1.94 1.85 1.70 1.70 1.66 1.76 1.73 1.71 1.67 1.70 1.76 1.79 1.81 1.72 1.67 1.60 1.61 1.47 1.37 1.25 1.22 1.29 1.39 1.38 1.34 1.37 1.38 1.34 1.36 1.38
1.36 1.42 1.47 1.40 1.45 1.52 1.58 1.60 1.56 1.48 1.47 1.66 1.71 1.83 1.78 1.80 1.88 1.78 1.68 1.67 1.71 1.65 1.61 1.66 1.68 1.65 1.61 1.50 1.47 1.49 1.45 1.38 1.33 1.29 1.28 1.38 1.42 1.42 1.47 1.47 1.42 1.40 1.39
1.37 1.40 1.43 1.42 1.33 1.53 1.66 1.59 1.56 1.46 1.52 1.58 1.72 1.76 1.75 1.75 1.71 1.67 1.68 1.65 1.70 1.70 1.70 1.68 1.65 1.54 1.51 1.53 1.47 1.43 1.45 1.47 1.44 1.34 1.20 1.31 1.41 1.42 1.42 1.40 1.39 1.39 1.40
1.25 1.35 1.37 1.43 1.36 1.41 1.58 1.57 1.50 1.54 1.58 1.61 1.70 1.76 1.71 1.65 1.62 1.71 1.68 1.65 1.66 1.70 1.62 1.56 1.51 1.46 1.39 1.31 1.37 1.45 1.49 1.48 1.46 1.47 1.40 1.32 1.37 1.39 1.37 1.40 1.39 1.41 1.45
1.36 1.36 1.44 1.46 1.48 1.46 1.55 1.47 1.47 1.57 1.67 1.70 1.68 1.73 1.74 1.69 1.71 1.70 1.64 1.60 1.60 1.64 1.63 1.55 1.52 1.45 1.33 1.29 1.30 1.39 1.47 1.49 1.47 1.48 1.47 1.43 1.41 1.43 1.44 1.46 1.47 1.49 1.51
1.44 1.47 1.50 1.47 1.50 1.39 1.45 1.48 1.49 1.59 1.66 1.75 1.70 1.73 1.83 1.83 1.73 1.69 1.68 1.55 1.60 1.61 1.61 1.55 1.51 1.45 1.35 1.32 1.34 1.43 1.48 1.46 1.47 1.47 1.46 1.49 1.52 1.53 1.59 1.58 1.54 1.53 1.51
1.45 1.47 1.50 1.55 1.50 1.45 1.53 1.55 1.50 1.54 1.66 1.79 1.76 1.79 1.81 1.80 1.78 1.69 1.62 1.61 1.64 1.61 1.59 1.56 1.49 1.40 1.30 1.28 1.38 1.48 1.51 1.50 1.47 1.43 1.46 1.48 1.56 1.63 1.61 1.54 1.53 1.53 1.54
1.45 1.41 1.39 1.51 1.55 1.52 1.52 1.56 1.61 1.63 1.63 1.72 1.71 1.76 1.72 1.72 1.70 1.69 1.66 1.71 1.71 1.58 1.56 1.53 1.45 1.43 1.31 1.23 1.33 1.47 1.51 1.49 1.47 1.49 1.45 1.48 1.53 1.57 1.54 1.54 1.55 1.59 1.64
1.46 1.45 1.41 1.45 1.57 1.67 1.64 1.61 1.60 1.63 1.61 1.64 1.65 1.71 1.74 1.69 1.73 1.74 1.75 1.70 1.67 1.55 1.54 1.58 1.42 1.42 1.37 1.27 1.30 1.38 1.45 1.46 1.48 1.48 1.49 1.53 1.53 1.53 1.54 1.54 1.55 1.59 1.66
1.44 1.38 1.39 1.37 1.53 1.57 1.54 1.59 1.61 1.52 1.57 1.69 1.66 1.62 1.66 1.70 1.59 1.62 1.63 1.64 1.66 1.58 1.56 1.52 1.47 1.27 1.21 1.29 1.17 1.19 1.28 1.35 1.35 1.42 1.47 1.46 1.46 1.47 1.47 1.51 1.56 1.65 1.68
1.39 1.38 1.37 1.35 1.42 1.53 1.64 1.75 1.77 1.68 1.70 1.74 1.84 1.86 1.79 1.68 1.75 1.74 1.68 1.59 1.55 1.63 1.62 1.56 1.50 1.29 1.26 1.32 1.09 1.11 1.03 1.15 1.32 1.38 1.38 1.39 1.37 1.41 1.44 1.51 1.55 1.60 1.62
1.34 1.34 1.27 1.30 1.32 1.41 1.54 1.66 1.68 1.81 1.76 1.73 1.69 1.70 1.73 1.81 1.62 1.62 1.74 1.56 1.58 1.62 1.53 1.56 1.52 1.34 1.19 1.33 1.28 1.14 1.03 1.00 1.16 1.25 1.26 1.30 1.30 1.33 1.42 1.46 1.49 1.53 1.56
1.38 1.39 1.31 1.32 1.34 1.34 1.39 1.44 1.47 1.46 1.52 1.67 1.70 1.76 1.69 1.80 1.78 1.70 1.70 1.67 1.67 1.44 1.42 1.46 1.49 1.35 1.33 1.23 1.32 1.33 1.47 1.41 1.14 1.01 1.21 1.24 1.27 1.25 1.33 1.37 1.41 1.45 1.49
1.45 1.40 1.41 1.31 1.38 1.37 1.32 1.33 1.42 1.42 1.48 1.66 1.77 1.80 1.74 1.74 1.82 1.76 1.79 1.67 1.51 1.43 1.41 1.52 1.52 1.44 1.44 1.38 1.32 1.27 1.38 1.46 1.47 1.19 1.03 1.15 1.24 1.27 1.34 1.36 1.40 1.43 1.51
1.52 1.43 1.42 1.34 1.29 1.32 1.38 1.35 1.37 1.46 1.44 1.56 1.70 1.76 1.73 1.67 1.68 1.74 1.76 1.73 1.69 1.63 1.46 1.45 1.59 1.46 1.44 1.49 1.50 1.36 1.28 1.31 1.37 1.34 1.21 1.20 1.20 1.31 1.47 1.51 1.48 1.47 1.54

GFSSE_prec_pwat_102.txt.gz
Precipitable_Water
1.80 1.87 1.86 1.93 1.99 1.99 2.01 1.97 1.91 1.84 1.85 1.89 1.86 1.88 1.86 1.83 1.89 1.86 1.77 1.52 1.46 1.50 1.46 1.58 1.72 1.68 1.65 1.53 1.63 1.71 1.71 1.74 1.74 1.72 1.68 1.70 1.83 1.86 1.92 1.98 1.96 1.85 1.78
1.85 1.90 1.86 1.92 1.82 1.76 1.68 1.75 1.77 1.77 1.77 1.81 1.80 1.80 1.83 1.87 1.91 1.89 1.75 1.58 1.58 1.65 1.66 1.78 1.80 1.82 1.84 1.81 1.62 1.63 1.73 1.60 1.49 1.63 1.77 1.83 1.95 1.97 1.70 1.69 1.62 1.67 1.79
1.81 1.92 1.95 1.99 1.96 1.88 1.78 1.74 1.76 1.77 1.69 1.66 1.73 1.83 1.82 1.91 2.02 1.83 1.78 1.65 1.76 1.71 1.70 1.71 1.77 1.79 1.70 1.38 1.41 1.61 1.61 1.64 1.57 1.54 1.61 1.86 1.97 1.85 1.80 1.79 1.76 1.60 1.51
1.77 1.91 1.96 1.99 1.90 1.77 1.81 1.78 1.68 1.67 1.60 1.56 1.60 1.74 1.81 1.97 1.99 1.86 1.80 1.67 1.69 1.83 1.87 1.76 1.65 1.55 1.57 1.63 1.63 1.49 1.60 1.65 1.74 1.86 1.71 1.62 1.63 1.78 1.84 1.67 1.69 1.75 1.69
1.81 1.97 1.95 1.83 1.60 1.52 1.55 1.60 1.57 1.54 1.70 1.68 1.70 1.86 1.92 2.00 1.94 1.87 1.84 1.79 1.82 1.87 1.85 1.83 1.86 1.76 1.72 1.66 1.54 1.52 1.63 1.60 1.63 1.64 1.69 1.74 1.51 1.44 1.52 1.59 1.63 1.57 1.68
1.85 1.90 1.55 1.51 1.57 1.63 1.43 1.55 1.72 1.75 1.86 1.86 1.90 1.96 1.99 2.01 1.97 1.88 1.86 1.78 1.73 1.84 1.78 1.70 1.67 1.66 1.65 1.66 1.56 1.53 1.54 1.47 1.51 1.64 1.55 1.72 1.42 1.37 1.42 1.41 1.72 1.60 1.55
1.57 1.54 1.65 1.78 1.94 1.83 1.82 1.69 1.83 1.77 1.86 1.93 1.95 1.96 2.00 1.94 1.94 1.86 1.81 1.72 1.76 1.86 1.78 1.75 1.71 1.66 1.65 1.62 1.57 1.49 1.49 1.51 1.56 1.66 1.54 1.38 1.32 1.44 1.38 1.34 1.33 1.38 1.33
1.51 1.76 1.90 1.92 1.97 2.04 1.90 1.76 1.91 1.83 1.86 1.98 1.96 2.00 1.99 1.92 1.89 1.68 1.65 1.70 1.74 1.74 1.74 1.73 1.74 1.70 1.65 1.58 1.49 1.43 1.42 1.48 1.51 1.60 1.57 1.43 1.45 1.42 1.42 1.66 1.61 1.52 1.45
1.67 1.78 1.85 1.90 1.91 1.96 2.03 1.89 1.90 1.92 1.93 2.02 1.99 1.94 1.93 1.78 1.81 1.71 1.56 1.62 1.74 1.75 1.74 1.73 1.72 1.69 1.64 1.62 1.55 1.44 1.35 1.37 1.38 1.48 1.52 1.59 1.44 1.29 1.29 1.28 1.29 1.32 1.36
1.66 1.70 1.77 1.86 1.85 1.81 1.92 1.95 1.89 1.80 1.92 1.95 1.98 1.93 1.84 1.78 1.71 1.54 1.49 1.67 1.78 1.79 1.79 1.79 1.76 1.68 1.63 1.60 1.51 1.43 1.36 1.38 1.37 1.35 1.43 1.44 1.31 1.27 1.29 1.30 1.31 1.33 1.38
1.56 1.72 1.77 1.73 1.80 1.79 1.80 1.71 1.73 1.75 1.87 1.89 1.92 1.97 1.95 1.75 1.61 1.59 1.50 1.64 1.75 1.82 1.78 1.81 1.78 1.74 1.73 1.59 1.52 1.47 1.51 1.33 1.26 1.36 1.28 1.22 1.29 1.38 1.39 1.35 1.34 1.35 1.39
1.43 1.53 1.60 1.66 1.70 1.72 1.70 1.79 1.73 1.81 1.94 1.91 1.96 1.76 1.67 1.70 1.76 1.69 1.68 1.72 1.76 1.82 1.77 1.77 1.73 1.70 1.69 1.65 1.61 1.61 1.47 1.41 1.34 1.27 1.28 1.34 1.41 1.43 1.43 1.41 1.38 1.39 1.42
1.45 1.49 1.53 1.56 1.58 1.59 1.60 1.61 1.64 1.73 1.81 1.95 1.82 1.73 1.72 1.75 1.75 1.72 1.68 1.73 1.75 1.80 1.79 1.76 1.68 1.63 1.63 1.65 1.57 1.52 1.53 1.48 1.32 1.29 1.25 1.35 1.36 1.38 1.39 1.38 1.40 1.44 1.49
1.35 1.43 1.49 1.52 1.57 1.58 1.56 1.52 1.54 1.69 1.77 1.76 1.67 1.80 1.78 1.70 1.68 1.69 1.69 1.72 1.76 1.72 1.62 1.60 1.56 1.54 1.53 1.53 1.54 1.55 1.53 1.47 1.38 1.36 1.19 1.22 1.28 1.31 1.36 1.41 1.46 1.50 1.48
1.32 1.33 1.39 1.54 1.67 1.68 1.55 1.49 1.53 1.64 1.78 1.72 1.74 1.85 1.79 1.72 1.70 1.68 1.72 1.71 1.67 1.64 1.58 1.51 1.50 1.45 1.39 1.42 1.52 1.53 1.48 1.47 1.47 1.41 1.27 1.23 1.29 1.35 1.43 1.47 1.46 1.45 1.47
1.36 1.29 1.32 1.51 1.66 1.59 1.50 1.52 1.59 1.71 1.78 1.73 1.73 1.75 1.81 1.81 1.75 1.68 1.66 1.64 1.62 1.60 1.57 1.54 1.50 1.43 1.39 1.43 1.40 1.46 1.51 1.53 1.49 1.49 1.45 1.43 1.43 1.47 1.46 1.43 1.44 1.49 1.55
1.36 1.38 1.37 1.44 1.65 1.52 1.54 1.59 1.68 1.71 1.74 1.72 1.72 1.75 1.80 1.78 1.74 1.69 1.59 1.57 1.62 1.59 1.58 1.54 1.49 1.42 1.41 1.48 1.44 1.48 1.53 1.52 1.47 1.52 1.57 1.62 1.62 1.49 1.42 1.45 1.52 1.57 1.61
1.37 1.39 1.45 1.47 1.53 1.50 1.56 1.65 1.73 1.74 1.75 1.75 1.76 1.81 1.83 1.81 1.78 1.71 1.60 1.56 1.61 1.60 1.58 1.49 1.43 1.35 1.46 1.50 1.47 1.50 1.50 1.50 1.51 1.54 1.60 1.67 1.62 1.57 1.55 1.55 1.61 1.62 1.65
1.43 1.41 1.44 1.46 1.44 1.51 1.60 1.66 1.71 1.80 1.80 1.76 1.76 1.79 1.82 1.80 1.77 1.72 1.69 1.66 1.67 1.60 1.55 1.47 1.38 1.37 1.40 1.46 1.42 1.42 1.47 1.52 1.54 1.53 1.58 1.63 1.50 1.59 1.61 1.60 1.61 1.65 1.65
1.46 1.46 1.47 1.48 1.52 1.59 1.61 1.64 1.67 1.73 1.80 1.78 1.76 1.77 1.78 1.76 1.79 1.73 1.72 1.67 1.64 1.59 1.51 1.47 1.39 1.35 1.32 1.40 1.44 1.36 1.42 1.47 1.53 1.57 1.54 1.52 1.48 1.54 1.57 1.64 1.71 1.73 1.68
1.39 1.43 1.48 1.48 1.61 1.60 1.54 1.52 1.60 1.55 1.66 1.69 1.73 1.75 1.72 1.84 1.84 1.79 1.74 1.68 1.65 1.58 1.57 1.50 1.39 1.23 1.28 1.33 1.38 1.30 1.31 1.39 1.44 1.52 1.54 1.49 1.43 1.49 1.53 1.63 1.68 1.68 1.70
1.37 1.37 1.47 1.63 1.63 1.62 1.72 1.71 1.72 1.64 1.68 1.71 1.72 1.73 1.78 1.74 1.70 1.73 1.71 1.63 1.70 1.63 1.54 1.55 1.43 1.31 1.28 1.27 1.30 1.30 1.15 1.22 1.40 1.43 1.44 1.40 1.39 1.49 1.55 1.60 1.60 1.61 1.68
1.34 1.37 1.39 1.57 1.68 1.66 1.79 1.82 1.77 1.79 1.75 1.72 1.76 1.77 1.75 1.76 1.80 1.78 1.74 1.65 1.65 1.67 1.57 1.57 1.48 1.36 1.24 1.27 1.36 1.42 1.14 1.17 1.22 1.31 1.31 1.36 1.34 1.47 1.50 1.50 1.55 1.59 1.64
1.40 1.43 1.43 1.54 1.60 1.68 1.81 1.85 1.84 1.62 1.61 1.72 1.74 1.79 1.74 1.81 1.70 1.70 1.71 1.67 1.64 1.64 1.62 1.62 1.57 1.49 1.42 1.25 1.33 1.48 1.53 1.50 1.25 1.15 1.29 1.34 1.33 1.34 1.42 1.50 1.54 1.60 1.66
1.48 1.42 1.43 1.45 1.57 1.63 1.69 1.78 1.76 1.67 1.70 1.74 1.79 1.78 1.78 1.84 1.85 1.81 1.77 1.70 1.71 1.56 1.43 1.55 1.52 1.44 1.42 1.38 1.35 1.35 1.45 1.51 1.44 1.29 1.20 1.29 1.30 1.42 1.56 1.54 1.52 1.60 1.75
1.54 1.49 1.42 1.38 1.41 1.47 1.55 1.66 1.67 1.59 1.64 1.71 1.76 1.77 1.74 1.79 1.83 1.77 1.82 1.77 1.69 1.54 1.50 1.52 1.64 1.52 1.52 1.39 1.40 1.32 1.33 1.41 1.43 1.42 1.32 1.31 1.34 1.50 1.60 1.69 1.64 1.65 1.79

GFSSE_prec_pwat_105.txt.gz
Precipitable_Water
1.79 1.85 2.00 2.04 2.04 2.07 2.07 2.02 1.95 1.95 1.90 1.90 1.92 1.91 1.91 1.93 1.85 1.61 1.48 1.52 1.49 1.53 1.69 1.61 1.59 1.56 1.61 1.69 1.72 1.75 1.73 1.74 1.71 1.69 1.74 1.89 2.01 2.01 2.08 2.07 1.89 1.74 1.73
1.83 1.88 1.88 1.91 1.92 1.91 1.84 1.80 1.84 1.81 1.86 1.87 1.89 1.87 1.90 1.90 1.76 1.59 1.56 1.60 1.64 1.76 1.79 1.82 1.83 1.82 1.69 1.64 1.75 1.71 1.45 1.54 1.77 1.92 1.98 1.96 1.83 1.76 1.69 1.60 1.74 1.76 1.71
1.82 1.78 1.83 1.84 1.82 1.70 1.74 1.78 1.84 1.76 1.73 1.74 1.86 1.86 1.97 1.93 1.79 1.67 1.81 1.84 1.81 1.80 1.81 1.85 1.85 1.49 1.40 1.54 1.64 1.66 1.61 1.63 1.70 2.05 2.02 1.93 1.89 1.80 1.75 1.69 1.54 1.51 1.58
1.76 1.89 1.94 1.93 1.88 1.84 1.76 1.74 1.77 1.72 1.62 1.66 1.75 1.80 1.97 1.93 1.91 1.70 1.66 1.78 1.84 1.77 1.66 1.54 1.58 1.67 1.67 1.55 1.54 1.63 1.68 1.84 1.72 1.76 1.73 1.67 1.78 1.73 1.62 1.67 1.77 1.74 1.58
1.85 2.01 1.90 1.82 1.57 1.62 1.70 1.65 1.63 1.70 1.63 1.64 1.77 1.87 1.96 1.97 1.94 1.84 1.86 1.90 1.91 1.84 1.88 1.80 1.77 1.74 1.62 1.51 1.58 1.57 1.56 1.62 1.78 1.90 1.74 1.52 1.47 1.50 1.73 1.76 1.66 1.66 1.65
1.88 1.93 1.61 1.51 1.48 1.43 1.62 1.70 1.70 1.81 1.76 1.83 1.93 2.01 2.01 2.01 1.91 1.85 1.79 1.77 1.84 1.79 1.79 1.76 1.71 1.71 1.68 1.53 1.52 1.47 1.46 1.60 1.72 1.64 1.63 1.34 1.37 1.40 1.46 1.46 1.41 1.38 1.42
1.71 1.50 1.51 1.82 1.75 1.68 1.66 1.75 1.74 1.87 1.91 1.93 1.99 2.04 1.98 1.96 1.88 1.80 1.74 1.82 1.85 1.79 1.75 1.65 1.63 1.63 1.61 1.53 1.48 1.45 1.54 1.64 1.76 1.57 1.34 1.34 1.40 1.42 1.56 1.45 1.51 1.42 1.33
1.56 1.68 1.82 1.89 1.93 1.82 1.74 1.81 1.78 1.86 1.98 1.96 2.00 1.99 1.99 1.87 1.75 1.66 1.74 1.76 1.76 1.75 1.75 1.72 1.66 1.62 1.54 1.46 1.39 1.37 1.51 1.62 1.62 1.54 1.39 1.39 1.36 1.40 1.49 1.42 1.43 1.44 1.41
1.90 1.78 1.83 1.90 1.97 1.92 1.86 1.92 1.88 2.01 2.00 1.97 1.96 1.91 1.77 1.82 1.61 1.59 1.62 1.71 1.73 1.73 1.70 1.68 1.65 1.61 1.59 1.51 1.36 1.30 1.36 1.43 1.56 1.78 1.60 1.34 1.23 1.24 1.26 1.28 1.31 1.33 1.36
1.71 1.90 1.79 1.81 1.86 1.98 1.93 1.89 1.84 1.93 1.95 1.90 1.86 1.77 1.73 1.67 1.51 1.56 1.63 1.76 1.76 1.76 1.75 1.70 1.65 1.58 1.54 1.40 1.37 1.42 1.45 1.51 1.41 1.38 1.30 1.21 1.25 1.28 1.30 1.30 1.32 1.34 1.37
1.69 1.80 1.79 1.73 1.80 1.85 1.84 1.75 1.71 1.85 1.84 1.87 1.91 1.87 1.88 1.73 1.62 1.70 1.68 1.73 1.79 1.75 1.79 1.73 1.67 1.70 1.69 1.54 1.50 1.54 1.54 1.41 1.40 1.34 1.18 1.26 1.36 1.38 1.36 1.34 1.33 1.35 1.39
1.51 1.64 1.71 1.70 1.70 1.80 1.72 1.79 1.73 1.94 2.05 1.92 1.90 1.83 2.01 1.78 1.63 1.58 1.66 1.77 1.73 1.72 1.70 1.68 1.67 1.71 1.80 1.87 1.77 1.64 1.48 1.39 1.31 1.27 1.25 1.33 1.35 1.39 1.39 1.38 1.38 1.43 1.45
1.50 1.49 1.63 1.65 1.80 1.72 1.63 1.67 1.73 1.96 1.89 1.90 1.78 1.72 1.65 1.66 1.70 1.59 1.69 1.78 1.79 1.92 1.80 1.65 1.82 1.83 1.58 1.78 1.50 1.48 1.46 1.37 1.28 1.23 1.22 1.28 1.31 1.35 1.37 1.39 1.42 1.41 1.38
1.40 1.46 1.51 1.52 1.62 1.63 1.57 1.64 1.72 1.80 1.89 1.72 1.73 1.75 1.78 1.66 1.69 1.76 1.67 1.58 1.85 1.64 1.60 1.84 1.50 1.55 1.51 1.58 1.60 1.52 1.51 1.40 1.36 1.19 1.12 1.22 1.27 1.32 1.37 1.40 1.38 1.41 1.49
1.36 1.44 1.47 1.56 1.61 1.66 1.58 1.54 1.73 1.76 1.79 1.69 1.83 2.04 1.87 1.75 1.65 1.73 1.72 1.91 1.61 1.69 1.55 1.59 1.50 1.47 1.50 1.62 1.56 1.57 1.47 1.50 1.44 1.25 1.16 1.24 1.31 1.34 1.36 1.37 1.44 1.53 1.57
1.33 1.36 1.48 1.71 1.61 1.64 1.56 1.62 1.62 1.94 1.72 1.76 1.79 1.75 1.99 1.73 1.75 1.62 1.73 1.51 1.59 1.69 1.58 1.58 1.63 1.49 1.57 1.42 1.48 1.57 1.59 1.48 1.54 1.47 1.44 1.43 1.38 1.35 1.37 1.43 1.50 1.54 1.60
1.34 1.35 1.47 1.66 1.61 1.53 1.53 1.54 1.83 1.68 1.80 1.75 1.77 1.78 1.75 1.81 1.74 1.63 1.50 1.81 1.58 1.47 1.57 1.47 1.46 1.58 1.50 1.41 1.46 1.58 1.51 1.54 1.52 1.62 1.64 1.58 1.44 1.38 1.43 1.51 1.54 1.58 1.61
1.41 1.36 1.44 1.59 1.51 1.52 1.60 1.70 1.70 1.77 1.72 1.74 1.71 1.76 1.78 1.74 1.70 1.67 1.69 1.55 1.51 1.59 1.52 1.49 1.51 1.47 1.49 1.51 1.54 1.63 1.51 1.49 1.55 1.64 1.66 1.63 1.66 1.56 1.52 1.55 1.57 1.59 1.58
1.45 1.44 1.43 1.58 1.48 1.60 1.61 1.85 1.72 1.78 1.77 1.72 1.76 1.85 1.83 1.76 1.72 1.73 1.77 1.56 1.73 1.57 1.51 1.53 1.35 1.64 1.43 1.47 1.49 1.53 1.56 1.51 1.64 1.58 1.59 1.54 1.53 1.68 1.66 1.60 1.65 1.62 1.56
1.48 1.49 1.47 1.51 1.50 1.60 1.80 1.71 1.73 1.90 1.74 1.69 1.82 1.84 1.73 1.75 1.75 1.82 1.66 1.56 1.67 1.61 1.54 1.44 1.54 1.47 1.48 1.50 1.58 1.44 1.53 1.53 1.58 1.60 1.54 1.54 1.50 1.64 1.63 1.70 1.83 1.74 1.64
1.47 1.45 1.45 1.49 1.50 1.63 1.51 1.58 1.62 1.70 1.70 1.71 1.83 1.69 1.74 1.80 1.79 1.75 1.77 1.56 1.72 1.76 1.50 1.48 1.55 1.39 1.42 1.39 1.49 1.35 1.32 1.46 1.54 1.55 1.57 1.56 1.42 1.61 1.60 1.65 1.70 1.71 1.76
1.42 1.40 1.45 1.56 1.55 1.67 1.57 1.74 1.68 1.74 1.67 1.75 1.83 1.74 1.81 1.79 1.76 1.74 1.75 1.67 2.04 1.56 1.51 1.53 1.49 1.48 1.35 1.44 1.42 1.39 1.19 1.32 1.48 1.54 1.51 1.44 1.48 1.58 1.62 1.68 1.67 1.66 1.68
1.34 1.39 1.46 1.56 1.64 1.70 1.73 1.89 1.93 1.74 1.83 1.65 1.70 1.73 1.70 1.79 1.71 1.81 1.72 1.93 1.62 1.81 1.60 1.56 1.38 1.54 1.32 1.26 1.54 1.63 1.24 1.28 1.27 1.37 1.35 1.45 1.36 1.57 1.58 1.57 1.67 1.68 1.68
1.39 1.44 1.50 1.62 1.73 1.66 2.04 1.74 1.79 1.67 1.51 1.67 1.68 1.84 1.80 1.77 1.75 1.77 1.77 1.68 1.61 1.81 1.70 1.59 1.51 1.48 1.55 1.26 1.34 1.50 1.65 1.59 1.53 1.21 1.30 1.39 1.34 1.44 1.52 1.58 1.61 1.76 1.75
1.48 1.44 1.47 1.59 1.66 1.73 1.75 2.10 1.92 1.66 1.97 2.28 1.84 1.83 1.88 1.79 1.78 1.71 1.76 1.76 1.70 1.65 1.54 1.69 1.47 1.55 1.50 1.47 1.46 1.39 1.32 1.45 1.38 1.36 1.38 1.35 1.34 1.42 1.64 1.63 1.60 1.65 1.88
1.53 1.42 1.46 1.46 1.56 1.63 1.78 1.87 1.83 1.78 1.78 1.77 1.83 1.74 1.84 1.78 1.83 1.79 1.83 1.76 1.74 1.61 1.48 1.50 1.61 1.49 1.59 1.51 1.52 1.41 1.44 1.49 1.53 1.53 1.33 1.31 1.42 1.52 1.59 1.76 1.69 1.67 1.77

GFSSE_prec_pwat_108.txt.gz
Precipitable_Water
1.83 1.94 2.03 2.03 2.05 2.03 2.05 1.98 2.05 2.01 1.98 1.94 1.89 1.96 1.91 1.67 1.54 1.57 1.52 1.53 1.69 1.58 1.55 1.56 1.59 1.70 1.73 1.71 1.67 1.72 1.75 1.71 1.75 1.83 1.97 2.07 2.09 2.13 2.06 1.89 1.71 1.67 1.70
1.83 1.90 1.93 1.91 1.92 1.87 1.84 1.84 1.81 1.91 1.90 1.85 1.92 1.91 1.81 1.62 1.57 1.58 1.57 1.72 1.78 1.83 1.81 1.79 1.74 1.64 1.71 1.70 1.52 1.57 1.78 1.95 1.98 2.06 1.86 1.78 1.77 1.67 1.70 1.71 1.64 1.69 1.72
1.76 1.79 1.79 1.73 1.64 1.70 1.74 1.83 1.83 1.78 1.82 1.86 1.90 1.94 1.82 1.67 1.79 1.78 1.77 1.78 1.78 1.82 1.89 1.64 1.39 1.48 1.62 1.55 1.60 1.68 1.77 1.89 2.05 2.00 1.98 1.79 1.75 1.72 1.56 1.52 1.61 1.63 1.62
1.72 1.83 1.85 1.89 1.80 1.73 1.79 1.78 1.76 1.69 1.70 1.79 1.88 1.95 1.93 1.80 1.71 1.77 1.81 1.77 1.69 1.57 1.55 1.69 1.67 1.57 1.47 1.54 1.61 1.76 1.80 1.91 1.91 1.86 1.72 1.68 1.55 1.63 1.73 1.78 1.73 1.48 1.50
1.91 1.91 1.88 1.78 1.74 1.74 1.69 1.62 1.69 1.63 1.68 1.81 1.91 1.94 1.94 1.89 1.85 1.81 1.87 1.87 1.87 1.81 1.80 1.74 1.71 1.55 1.52 1.53 1.54 1.64 1.76 1.81 1.83 1.60 1.45 1.39 1.61 1.87 1.80 1.66 1.65 1.57 1.51
1.95 1.87 1.65 1.49 1.48 1.59 1.66 1.70 1.80 1.76 1.82 1.92 2.00 1.98 1.93 1.87 1.80 1.79 1.82 1.89 1.82 1.81 1.79 1.76 1.73 1.59 1.52 1.41 1.44 1.62 1.70 1.75 1.69 1.37 1.27 1.36 1.37 1.42 1.35 1.32 1.29 1.34 1.35
1.74 1.45 1.52 1.61 1.50 1.61 1.78 1.84 1.91 1.87 1.93 1.99 2.02 1.96 1.93 1.84 1.74 1.78 1.80 1.82 1.76 1.70 1.66 1.62 1.65 1.55 1.50 1.39 1.47 1.58 1.74 1.65 1.46 1.22 1.31 1.34 1.59 1.70 1.53 1.55 1.44 1.36 1.32
1.46 1.56 1.80 1.81 1.78 1.73 1.81 1.85 1.88 1.95 1.96 1.96 1.94 1.93 1.83 1.72 1.65 1.74 1.72 1.71 1.70 1.70 1.65 1.59 1.55 1.45 1.36 1.28 1.37 1.52 1.66 1.73 1.52 1.41 1.27 1.27 1.36 1.42 1.41 1.41 1.42 1.39 1.36
1.75 1.74 1.86 1.93 1.79 1.82 1.90 1.83 1.98 1.93 1.95 1.92 1.84 1.78 1.71 1.63 1.62 1.64 1.71 1.68 1.67 1.66 1.62 1.52 1.47 1.42 1.33 1.30 1.29 1.37 1.56 1.77 1.66 1.46 1.22 1.18 1.27 1.30 1.30 1.33 1.35 1.35 1.36
1.81 1.75 1.77 1.90 1.95 1.79 1.87 1.86 1.91 1.90 1.84 1.79 1.67 1.64 1.55 1.50 1.58 1.65 1.68 1.69 1.67 1.63 1.59 1.48 1.46 1.38 1.33 1.32 1.37 1.44 1.45 1.53 1.49 1.29 1.16 1.24 1.29 1.29 1.30 1.31 1.33 1.35 1.40
1.62 1.81 1.71 1.79 1.98 1.90 1.82 1.75 1.84 1.83 1.82 1.79 1.72 1.80 1.73 1.51 1.57 1.71 1.65 1.67 1.70 1.70 1.61 1.59 1.70 1.71 1.71 1.67 1.56 1.47 1.52 1.52 1.36 1.26 1.18 1.29 1.35 1.35 1.33 1.34 1.37 1.41 1.43
1.53 1.72 1.80 1.69 1.80 1.76 1.65 1.68 1.88 1.89 1.86 1.77 2.03 2.03 1.78 1.65 1.55 1.55 1.68 1.68 1.77 1.72 1.78 1.81 1.71 1.78 1.80 1.86 1.67 1.51 1.44 1.32 1.34 1.24 1.20 1.28 1.34 1.37 1.39 1.41 1.38 1.36 1.38
1.49 1.58 1.77 1.69 1.74 1.68 1.61 1.72 1.98 1.97 1.86 1.66 1.92 1.91 1.64 1.49 1.53 1.69 1.72 1.75 2.04 1.81 1.86 1.95 1.83 2.22 1.76 1.83 1.71 1.58 1.37 1.33 1.27 1.18 1.20 1.27 1.30 1.38 1.36 1.32 1.37 1.47 1.54
1.47 1.61 1.57 1.71 1.63 1.72 1.67 1.82 1.89 1.85 1.71 1.66 1.58 1.63 1.72 1.70 1.86 2.15 1.81 1.86 1.99 1.78 1.64 1.69 1.49 1.44 1.84 1.63 1.53 1.55 1.46 1.36 1.21 1.10 1.16 1.23 1.28 1.30 1.30 1.38 1.47 1.53 1.53
1.36 1.49 1.53 1.62 1.65 1.58 1.64 1.81 1.76 1.71 1.79 1.75 1.73 1.93 1.94 1.71 1.52 1.70 1.19 1.64 1.79 2.01 1.78 1.64 1.58 1.47 1.56 1.51 1.58 1.48 1.45 1.47 1.27 1.18 1.18 1.23 1.27 1.29 1.35 1.43 1.49 1.53 1.54
1.38 1.44 1.54 1.47 1.53 1.62 1.59 1.77 1.79 1.70 1.76 1.91 1.81 2.33 1.75 1.78 1.63 1.75 1.56 2.10 1.66 1.73 1.53 1.60 1.60 1.65 1.47 1.35 1.53 1.60 1.48 1.49 1.53 1.42 1.36 1.29 1.28 1.31 1.40 1.47 1.53 1.54 1.51
1.34 1.46 1.52 1.49 1.50 1.58 1.54 1.70 1.71 1.68 1.76 1.75 1.78 1.81 1.79 1.70 1.63 1.99 1.68 1.47 1.30 1.45 1.42 1.60 1.71 1.59 1.54 1.57 1.56 1.54 1.49 1.49 1.54 1.54 1.48 1.39 1.36 1.42 1.48 1.55 1.53 1.49 1.47
1.34 1.31 1.50 1.55 1.52 1.43 1.50 1.68 1.71 1.71 1.67 1.73 1.70 1.72 1.83 1.61 1.53 1.52 1.70 1.44 1.33 1.51 1.70 1.54 1.66 1.70 1.60 1.54 1.62 1.57 1.51 1.46 1.57 1.58 1.56 1.57 1.60 1.56 1.52 1.54 1.50 1.47 1.46
1.35 1.26 1.58 1.48 1.40 1.53 1.64 1.68 1.87 1.74 1.61 1.71 1.67 1.74 1.64 1.55 1.62 1.70 1.47 1.39 1.65 1.84 1.49 1.71 1.46 1.48 1.54 1.55 1.58 1.52 1.56 1.57 1.61 1.59 1.46 1.52 1.62 1.66 1.60 1.59 1.64 1.56 1.59
1.42 1.37 1.57 1.51 1.51 1.44 1.82 1.81 1.74 1.73 1.71 1.84 1.72 1.83 1.61 1.59 1.64 1.79 1.67 1.50 1.68 1.77 1.77 1.54 1.54 1.46 1.67 1.59 1.60 1.54 1.55 1.56 1.61 1.52 1.48 1.48 1.53 1.62 1.64 1.64 1.69 1.67 1.67
1.42 1.42 1.43 1.48 1.47 1.53 1.55 1.57 1.66 1.53 1.66 1.65 1.79 1.78 1.77 1.72 1.66 1.70 1.62 1.74 1.85 1.66 1.32 1.35 1.57 1.54 1.44 1.59 1.55 1.34 1.30 1.45 1.53 1.54 1.58 1.55 1.45 1.65 1.56 1.58 1.63 1.65 1.73
1.37 1.38 1.41 1.50 1.48 1.53 1.61 1.64 1.71 1.69 1.63 1.70 1.72 1.67 1.83 1.75 1.70 1.77 1.76 1.76 1.78 1.56 1.29 1.39 1.54 1.60 1.44 1.46 1.45 1.51 1.23 1.39 1.52 1.55 1.52 1.50 1.46 1.51 1.56 1.59 1.58 1.52 1.69
1.35 1.35 1.34 1.52 1.39 1.53 1.81 1.83 1.74 1.85 1.66 1.62 1.67 1.63 1.70 1.73 1.61 2.00 1.75 1.74 1.65 1.58 1.38 1.36 1.52 1.60 1.37 1.39 1.53 1.57 1.42 1.31 1.38 1.44 1.35 1.47 1.28 1.47 1.54 1.52 1.67 1.66 1.72
1.35 1.28 1.40 1.59 1.42 1.69 1.83 1.67 1.90 1.69 1.68 1.76 1.72 1.74 1.75 1.68 1.77 1.66 1.57 1.61 1.73 1.92 1.64 1.44 1.53 1.66 1.62 1.36 1.44 1.55 1.62 1.58 1.36 1.15 1.38 1.47 1.37 1.48 1.44 1.51 1.64 1.70 1.79
1.44 1.33 1.34 1.48 1.55 1.65 2.01 1.87 1.72 1.68 1.76 1.75 1.91 2.04 1.83 1.70 1.72 1.71 1.65 1.54 1.61 1.76 1.70 1.60 1.47 1.44 1.69 1.56 1.48 1.51 1.46 1.75 1.59 1.86 1.38 1.37 1.55 1.59 1.66 1.58 1.62 1.84 2.01
1.40 1.43 1.32 1.36 1.56 1.67 1.75 1.94 1.99 1.97 1.75 1.96 1.94 1.85 1.89 1.80 1.69 1.75 1.85 1.73 1.65 1.61 1.72 1.42 1.49 1.41 1.49 1.55 1.61 1.60 1.52 1.38 1.33 1.44 1.74 1.79 1.62 1.64 2.05 2.31 1.97 1.80 1.92

GFSSE_prec_pwat_111.txt.gz
Precipitable_Water
1.84 2.01 2.09 2.09 2.12 2.06 2.07 2.07 2.03 2.00 1.98 2.00 1.97 1.73 1.61 1.69 1.56 1.60 1.59 1.55 1.58 1.63 1.62 1.65 1.69 1.72 1.70 1.71 1.71 1.68 1.68 1.77 1.93 1.99 2.06 2.09 2.05 1.92 1.84 1.69 1.67 1.67 1.67
1.76 1.90 1.97 2.03 1.99 1.95 1.93 1.96 1.96 1.93 1.94 1.99 1.87 1.67 1.59 1.57 1.61 1.75 1.80 1.81 1.76 1.74 1.72 1.68 1.66 1.59 1.56 1.62 1.83 1.90 1.90 2.02 1.94 1.75 1.72 1.66 1.68 1.68 1.62 1.64 1.71 1.67 1.61
1.72 1.81 1.82 1.78 1.72 1.78 1.80 1.81 1.85 1.87 1.85 1.96 1.82 1.63 1.76 1.75 1.75 1.78 1.78 1.80 1.84 1.71 1.37 1.42 1.59 1.51 1.60 1.69 1.73 1.83 2.00 2.04 2.02 1.85 1.71 1.62 1.56 1.56 1.59 1.60 1.59 1.61 1.66
1.66 1.71 1.69 1.64 1.71 1.75 1.72 1.75 1.72 1.74 1.82 1.91 1.87 1.76 1.80 1.78 1.84 1.81 1.72 1.57 1.46 1.62 1.68 1.60 1.45 1.47 1.63 1.71 1.78 1.86 1.91 1.91 1.86 1.68 1.50 1.63 1.65 1.72 1.72 1.54 1.48 1.52 1.52
1.67 1.74 1.80 1.75 1.69 1.73 1.65 1.63 1.57 1.68 1.78 1.88 1.88 1.81 1.79 1.81 1.82 1.83 1.81 1.76 1.72 1.70 1.66 1.56 1.46 1.48 1.62 1.69 1.74 1.83 1.89 1.68 1.51 1.47 1.49 1.69 1.70 1.71 1.68 1.66 1.53 1.49 1.50
1.81 1.76 1.63 1.63 1.58 1.59 1.64 1.73 1.69 1.77 1.88 1.94 1.95 1.89 1.83 1.83 1.79 1.84 1.81 1.79 1.77 1.70 1.66 1.63 1.43 1.34 1.47 1.59 1.64 1.68 1.71 1.49 1.35 1.30 1.32 1.40 1.32 1.33 1.31 1.34 1.37 1.34 1.36
1.66 1.50 1.42 1.47 1.59 1.73 1.83 1.80 1.80 1.92 1.98 1.97 1.96 1.91 1.83 1.78 1.76 1.79 1.74 1.71 1.61 1.56 1.59 1.63 1.43 1.30 1.38 1.51 1.61 1.67 1.64 1.47 1.29 1.19 1.22 1.61 1.51 1.59 1.58 1.44 1.37 1.35 1.35
1.36 1.60 1.56 1.61 1.72 1.74 1.89 1.89 1.92 1.96 2.00 1.98 1.97 1.82 1.73 1.70 1.73 1.68 1.66 1.62 1.58 1.53 1.50 1.41 1.31 1.24 1.35 1.52 1.60 1.61 1.54 1.57 1.34 1.19 1.27 1.39 1.48 1.46 1.46 1.42 1.37 1.35 1.38
1.59 1.70 1.78 1.68 1.74 1.81 1.85 1.94 1.93 1.96 1.87 1.78 1.78 1.69 1.56 1.61 1.64 1.63 1.60 1.62 1.60 1.52 1.47 1.41 1.32 1.23 1.26 1.44 1.54 1.65 1.61 1.47 1.40 1.22 1.15 1.22 1.30 1.31 1.30 1.30 1.34 1.39 1.44
1.75 1.71 1.76 1.67 1.79 1.79 1.87 1.97 1.89 1.85 1.78 1.74 1.73 1.58 1.52 1.59 1.66 1.69 1.59 1.56 1.50 1.51 1.48 1.52 1.52 1.45 1.45 1.48 1.48 1.50 1.48 1.53 1.49 1.32 1.14 1.23 1.26 1.27 1.29 1.34 1.39 1.42 1.44
1.67 1.67 1.79 1.85 1.79 1.73 1.78 1.83 1.82 1.79 1.76 1.86 1.83 1.63 1.52 1.64 1.64 1.67 1.65 1.68 1.64 1.74 1.82 1.77 1.76 1.68 1.65 1.53 1.51 1.47 1.54 1.55 1.40 1.17 1.16 1.23 1.28 1.32 1.32 1.33 1.35 1.37 1.42
1.69 1.65 1.71 1.78 1.73 1.56 1.60 1.68 1.76 1.88 1.95 1.87 1.88 1.73 1.73 1.74 1.77 1.73 1.70 1.77 1.86 1.79 1.76 1.80 1.78 1.79 1.70 1.67 1.55 1.45 1.48 1.35 1.31 1.12 1.15 1.23 1.30 1.33 1.34 1.36 1.40 1.44 1.49
1.57 1.66 1.63 1.69 1.68 1.57 1.67 1.88 1.82 1.83 1.84 1.76 1.56 1.65 1.75 1.80 1.73 1.68 1.88 2.01 1.76 1.79 1.63 1.69 1.36 1.66 1.68 1.67 1.65 1.55 1.46 1.31 1.24 1.09 1.15 1.22 1.26 1.33 1.36 1.40 1.45 1.48 1.49
1.46 1.57 1.64 1.64 1.59 1.67 1.75 1.93 1.81 1.72 1.62 1.59 1.61 1.77 1.84 1.59 1.46 1.54 1.87 1.92 1.77 1.58 1.46 1.76 1.63 1.60 1.64 1.64 1.66 1.58 1.45 1.30 1.15 1.05 1.14 1.18 1.25 1.29 1.36 1.41 1.45 1.47 1.48
1.41 1.48 1.58 1.58 1.65 1.65 1.74 1.84 1.76 1.73 1.71 1.68 1.81 2.01 1.82 1.93 1.64 1.61 1.86 1.64 1.49 1.71 1.61 1.62 1.65 1.60 1.57 1.61 1.50 1.39 1.39 1.28 1.22 1.10 1.14 1.18 1.21 1.30 1.36 1.40 1.42 1.45 1.47
1.39 1.46 1.51 1.50 1.62 1.67 1.69 1.78 1.75 1.74 1.71 1.65 1.76 1.73 1.76 1.77 1.76 1.67 1.63 1.60 1.54 1.70 1.68 1.64 1.59 1.60 1.53 1.49 1.48 1.45 1.41 1.34 1.31 1.20 1.15 1.19 1.25 1.33 1.37 1.39 1.43 1.45 1.45
1.44 1.49 1.42 1.39 1.60 1.65 1.71 1.82 1.66 1.68 1.85 1.73 1.48 1.60 1.65 1.74 1.83 1.76 1.49 1.52 1.54 1.74 1.86 1.77 1.73 1.70 1.59 1.51 1.45 1.46 1.41 1.43 1.32 1.31 1.34 1.33 1.35 1.39 1.39 1.41 1.43 1.43 1.41
1.38 1.36 1.43 1.35 1.45 1.54 1.61 1.67 1.63 1.72 1.71 1.67 1.61 1.58 1.61 1.73 1.86 1.60 1.39 1.45 1.62 1.66 1.90 1.75 1.61 1.63 1.57 1.56 1.47 1.42 1.46 1.42 1.43 1.36 1.43 1.46 1.50 1.46 1.49 1.48 1.55 1.54 1.49
1.31 1.27 1.39 1.42 1.37 1.45 1.60 1.67 1.69 1.64 1.62 1.65 1.66 1.65 1.56 1.61 1.69 1.70 1.49 1.74 1.69 1.62 1.60 1.64 1.63 1.51 1.48 1.53 1.56 1.52 1.56 1.53 1.41 1.42 1.41 1.52 1.56 1.58 1.52 1.54 1.61 1.61 1.63
1.36 1.33 1.41 1.40 1.39 1.57 1.72 1.82 1.72 1.69 1.64 1.69 1.68 1.67 1.61 1.66 1.86 1.58 1.61 1.64 1.74 1.57 1.61 1.56 1.49 1.60 1.64 1.57 1.55 1.51 1.53 1.55 1.51 1.48 1.36 1.53 1.59 1.61 1.61 1.55 1.56 1.63 1.70
1.37 1.28 1.41 1.36 1.39 1.48 1.61 1.63 1.63 1.51 1.82 1.68 1.71 1.67 1.60 1.64 1.66 1.60 1.56 1.30 1.54 1.56 1.59 1.60 1.55 1.61 1.59 1.54 1.44 1.41 1.46 1.56 1.53 1.58 1.58 1.60 1.58 1.64 1.70 1.66 1.67 1.68 1.78
1.31 1.33 1.41 1.39 1.38 1.47 1.57 1.59 1.68 1.57 1.62 1.63 1.69 1.70 1.63 1.70 1.68 1.71 1.59 1.86 1.69 1.36 1.37 1.54 1.61 1.60 1.59 1.55 1.41 1.46 1.20 1.37 1.54 1.61 1.60 1.59 1.60 1.60 1.69 1.79 1.85 1.85 1.89
1.27 1.31 1.37 1.40 1.43 1.60 1.67 1.65 1.69 1.62 1.67 1.69 1.69 1.58 1.68 1.67 1.64 1.70 1.79 1.81 1.61 1.45 1.30 1.48 1.60 1.64 1.43 1.59 1.60 1.50 1.33 1.25 1.42 1.51 1.56 1.63 1.74 1.83 1.95 1.97 1.95 2.14 2.12
1.31 1.36 1.37 1.43 1.42 1.59 1.75 1.66 1.63 1.66 1.45 1.63 1.61 1.66 1.61 1.64 1.61 1.72 1.66 1.89 1.69 1.83 1.43 1.49 1.60 1.61 1.57 1.47 1.58 1.70 1.73 1.55 1.31 1.20 1.50 1.58 1.76 1.76 1.91 1.85 1.86 2.03 1.75
1.41 1.35 1.36 1.35 1.41 1.57 1.73 1.79 1.88 1.70 1.75 1.81 1.75 1.81 1.81 1.71 1.74 1.71 1.55 1.53 1.66 1.82 1.59 1.52 1.57 1.56 1.60 1.50 1.55 1.61 1.59 1.62 1.68 1.21 1.19 1.42 1.66 1.76 1.82 1.77 1.85 1.91 1.79
1.50 1.42 1.40 1.26 1.35 1.52 1.77 1.83 1.81 1.72 1.77 1.90 1.76 1.82 1.83 1.81 1.74 1.68 1.67 1.64 1.62 1.60 1.55 1.50 1.68 1.41 1.55 1.53 1.60 1.68 1.59 1.50 1.51 1.47 1.22 1.34 1.45 1.78 1.78 1.58 1.61 1.75 1.62

GFSSE_prec_pwat_114.txt.gz
Precipitable_Water
1.88 1.98 2.05 2.04 2.05 2.09 2.04 2.02 1.99 2.01 2.00 1.83 1.71 1.76 1.55 1.50 1.50 1.58 1.57 1.61 1.63 1.64 1.65 1.66 1.68 1.71 1.70 1.65 1.61 1.74 1.90 1.99 2.03 2.01 1.99 1.88 1.82 1.75 1.67 1.64 1.59 1.58 1.62
1.91 1.98 2.01 2.02 2.01 2.00 1.98 1.97 1.93 1.98 1.94 1.85 1.64 1.77 1.63 1.75 1.78 1.69 1.68 1.66 1.63 1.68 1.70 1.65 1.63 1.66 1.72 1.80 1.81 1.91 1.90 1.83 1.81 1.73 1.73 1.72 1.68 1.63 1.66 1.64 1.62 1.55 1.56
1.72 1.90 1.89 1.83 1.82 1.80 1.86 1.89 1.88 1.98 1.96 1.83 1.70 1.70 1.79 1.79 1.82 1.83 1.83 1.85 1.64 1.52 1.64 1.59 1.52 1.68 1.75 1.82 1.96 2.03 1.99 1.81 1.71 1.59 1.53 1.55 1.57 1.59 1.62 1.60 1.59 1.57 1.55
1.74 1.80 1.78 1.76 1.78 1.77 1.73 1.76 1.82 1.95 1.93 1.76 1.89 1.84 1.83 1.82 1.80 1.80 1.78 1.54 1.54 1.55 1.53 1.53 1.60 1.68 1.76 1.82 1.89 1.93 1.88 1.76 1.66 1.65 1.63 1.62 1.63 1.53 1.44 1.46 1.53 1.52 1.53
1.67 1.65 1.69 1.73 1.74 1.73 1.69 1.64 1.71 1.84 1.89 1.85 1.81 1.87 1.84 1.81 1.80 1.77 1.61 1.69 1.62 1.54 1.45 1.51 1.62 1.68 1.75 1.83 1.89 1.80 1.63 1.59 1.60 1.52 1.53 1.57 1.60 1.63 1.63 1.59 1.54 1.49 1.49
1.64 1.76 1.69 1.67 1.67 1.63 1.66 1.62 1.75 1.89 1.92 1.84 1.81 1.78 1.74 1.74 1.80 1.80 1.81 1.78 1.71 1.62 1.52 1.47 1.53 1.61 1.62 1.67 1.76 1.59 1.50 1.47 1.39 1.34 1.50 1.39 1.39 1.44 1.46 1.44 1.38 1.37 1.53
1.68 1.61 1.61 1.55 1.66 1.72 1.73 1.76 1.90 1.95 1.95 1.90 1.86 1.79 1.80 1.81 1.81 1.76 1.67 1.65 1.63 1.63 1.53 1.36 1.43 1.53 1.54 1.67 1.64 1.50 1.47 1.30 1.20 1.19 1.29 1.29 1.51 1.51 1.39 1.34 1.32 1.34 1.35
1.41 1.42 1.57 1.66 1.73 1.84 1.83 1.90 1.96 1.97 1.96 1.95 1.82 1.69 1.73 1.71 1.72 1.69 1.60 1.56 1.55 1.48 1.40 1.33 1.33 1.48 1.57 1.63 1.52 1.60 1.44 1.30 1.15 1.27 1.48 1.51 1.52 1.50 1.38 1.37 1.36 1.39 1.43
1.50 1.47 1.61 1.76 1.78 1.89 1.91 1.91 1.95 1.99 1.91 1.81 1.70 1.60 1.65 1.67 1.66 1.61 1.62 1.61 1.54 1.46 1.36 1.25 1.26 1.45 1.59 1.63 1.59 1.54 1.51 1.45 1.26 1.20 1.21 1.27 1.29 1.30 1.33 1.36 1.40 1.44 1.46
1.66 1.66 1.55 1.71 1.72 1.86 1.87 1.88 1.90 1.78 1.78 1.75 1.63 1.58 1.62 1.67 1.58 1.54 1.55 1.56 1.54 1.55 1.48 1.41 1.34 1.43 1.65 1.62 1.55 1.53 1.56 1.49 1.40 1.17 1.14 1.19 1.26 1.31 1.32 1.34 1.37 1.39 1.44
1.62 1.67 1.58 1.68 1.67 1.80 1.84 1.85 1.83 1.77 1.81 1.72 1.63 1.68 1.67 1.69 1.65 1.66 1.69 1.76 1.74 1.68 1.58 1.54 1.50 1.46 1.52 1.53 1.49 1.56 1.61 1.51 1.38 1.14 1.16 1.22 1.26 1.28 1.29 1.32 1.39 1.47 1.55
1.54 1.65 1.74 1.65 1.59 1.65 1.78 1.81 1.85 1.88 1.89 1.77 1.60 1.69 1.69 1.67 1.71 1.70 1.72 1.81 1.82 1.75 1.84 1.82 1.66 1.58 1.51 1.48 1.55 1.60 1.60 1.51 1.27 1.12 1.17 1.24 1.31 1.35 1.38 1.41 1.44 1.48 1.52
1.59 1.57 1.63 1.59 1.56 1.62 1.68 1.79 1.86 1.74 1.69 1.73 1.69 1.73 1.72 1.66 1.71 1.69 1.65 1.73 1.81 1.69 1.63 1.78 1.66 1.64 1.58 1.59 1.54 1.54 1.51 1.36 1.24 1.10 1.19 1.29 1.35 1.40 1.42 1.43 1.44 1.47 1.50
1.58 1.56 1.59 1.61 1.62 1.73 1.84 1.82 1.84 1.72 1.69 1.55 1.69 1.73 1.63 1.58 1.62 1.68 1.57 1.50 1.45 1.65 1.70 1.63 1.58 1.61 1.64 1.65 1.55 1.47 1.47 1.36 1.19 1.13 1.22 1.28 1.35 1.42 1.45 1.46 1.49 1.51 1.53
1.48 1.53 1.59 1.63 1.66 1.72 1.84 1.82 1.74 1.68 1.72 1.73 1.78 1.74 1.67 1.48 1.51 1.66 1.51 1.48 1.53 1.68 1.74 1.65 1.64 1.63 1.66 1.61 1.55 1.47 1.49 1.34 1.15 1.17 1.21 1.29 1.33 1.39 1.44 1.49 1.51 1.51 1.53
1.44 1.47 1.59 1.60 1.61 1.66 1.73 1.77 1.80 1.77 1.78 1.73 1.84 1.75 1.70 1.63 1.68 1.48 1.47 1.51 1.56 1.78 1.74 1.70 1.66 1.63 1.59 1.56 1.49 1.41 1.38 1.29 1.22 1.17 1.23 1.33 1.34 1.40 1.49 1.54 1.53 1.53 1.53
1.34 1.41 1.47 1.58 1.66 1.64 1.72 1.74 1.73 1.76 1.70 1.56 1.65 1.73 1.78 1.64 1.71 1.59 1.56 1.60 1.65 1.68 1.68 1.70 1.74 1.72 1.52 1.52 1.50 1.47 1.37 1.32 1.31 1.33 1.39 1.40 1.44 1.51 1.58 1.61 1.59 1.58 1.58
1.40 1.38 1.43 1.48 1.57 1.66 1.79 1.68 1.63 1.75 1.67 1.54 1.54 1.61 1.63 1.84 1.69 1.60 1.69 1.78 1.82 1.71 1.69 1.63 1.65 1.61 1.57 1.51 1.55 1.53 1.46 1.37 1.32 1.41 1.45 1.50 1.54 1.56 1.59 1.62 1.68 1.72 1.72
1.41 1.36 1.35 1.39 1.48 1.59 1.64 1.64 1.65 1.64 1.65 1.67 1.58 1.50 1.60 1.71 1.75 1.56 1.63 1.80 1.93 1.83 1.64 1.69 1.68 1.63 1.58 1.57 1.55 1.61 1.52 1.44 1.39 1.40 1.42 1.48 1.51 1.53 1.57 1.57 1.66 1.80 1.87
1.43 1.39 1.35 1.34 1.41 1.53 1.64 1.67 1.64 1.63 1.59 1.66 1.68 1.60 1.57 1.60 1.66 1.71 1.54 1.55 1.66 1.72 1.74 1.69 1.67 1.75 1.63 1.59 1.53 1.55 1.54 1.46 1.46 1.45 1.53 1.63 1.71 1.79 1.83 1.78 1.82 1.84 1.94
1.39 1.38 1.30 1.26 1.35 1.48 1.57 1.64 1.47 1.46 1.53 1.60 1.69 1.67 1.59 1.66 1.71 1.65 1.53 1.59 1.66 1.65 1.69 1.69 1.70 1.60 1.54 1.56 1.47 1.49 1.50 1.51 1.50 1.56 1.75 1.70 1.70 1.72 1.82 1.88 1.94 1.96 2.03
1.38 1.33 1.26 1.26 1.38 1.51 1.57 1.63 1.61 1.62 1.65 1.62 1.66 1.66 1.65 1.63 1.66 1.68 1.58 1.54 1.65 1.59 1.62 1.65 1.68 1.65 1.61 1.63 1.41 1.39 1.20 1.37 1.52 1.62 1.69 1.70 1.73 1.68 1.71 1.81 1.90 1.94 1.92
1.35 1.32 1.31 1.32 1.35 1.46 1.60 1.63 1.62 1.57 1.54 1.50 1.59 1.57 1.62 1.66 1.75 1.70 1.64 1.68 1.63 1.34 1.54 1.67 1.65 1.60 1.52 1.65 1.58 1.44 1.24 1.21 1.38 1.55 1.56 1.59 1.64 1.65 1.70 1.80 1.79 1.80 1.79
1.32 1.36 1.32 1.35 1.41 1.56 1.60 1.58 1.54 1.41 1.38 1.62 1.56 1.51 1.61 1.66 1.58 1.73 1.81 1.75 1.56 1.44 1.32 1.52 1.68 1.66 1.63 1.50 1.60 1.57 1.57 1.48 1.31 1.25 1.50 1.49 1.59 1.60 1.63 1.76 1.62 1.59 1.54
1.37 1.39 1.36 1.36 1.44 1.59 1.68 1.67 1.66 1.70 1.67 1.79 1.64 1.61 1.56 1.62 1.67 1.66 1.55 1.79 1.65 1.82 1.51 1.41 1.55 1.61 1.67 1.57 1.50 1.50 1.53 1.51 1.41 1.33 1.19 1.31 1.52 1.60 1.65 1.66 1.54 1.56 1.62
1.42 1.41 1.38 1.30 1.38 1.54 1.69 1.77 1.87 1.74 1.66 1.72 1.70 1.73 1.82 1.71 1.61 1.70 1.64 1.58 1.60 1.59 1.62 1.47 1.53 1.55 1.63 1.58 1.62 1.54 1.45 1.35 1.34 1.40 1.25 1.22 1.29 1.41 1.57 1.57 1.61 1.60 1.50

GFSSE_prec_pwat_117.txt.gz
Precipitable_Water
1.78 1.94 2.00 2.08 2.10 2.12 2.09 2.08 2.05 1.89 1.77 1.76 1.68 1.53 1.52 1.55 1.53 1.60 1.64 1.69 1.72 1.68 1.68 1.69 1.70 1.70 1.66 1.70 1.85 1.94 2.02 2.02 2.01 1.96 1.83 1.76 1.69 1.60 1.58 1.61 1.59 1.58 1.47
1.83 1.92 2.02 2.05 2.04 2.04 1.95 1.95 2.02 2.02 1.73 1.82 1.69 1.57 1.62 1.72 1.72 1.71 1.68 1.67 1.65 1.72 1.74 1.73 1.78 1.72 1.74 1.83 1.96 2.03 2.00 1.99 1.88 1.80 1.77 1.68 1.62 1.57 1.56 1.60 1.56 1.49 1.48
1.75 1.87 1.95 1.98 2.00 1.92 1.91 1.94 1.98 1.92 1.62 1.67 1.69 1.77 1.82 1.79 1.77 1.79 1.76 1.76 1.73 1.64 1.62 1.66 1.79 1.89 1.99 2.04 1.99 1.77 1.70 1.61 1.59 1.63 1.66 1.57 1.57 1.62 1.64 1.52 1.53 1.54 1.48
1.64 1.73 1.73 1.80 1.79 1.83 1.82 1.84 1.92 1.84 1.67 1.76 1.80 1.89 1.86 1.87 1.89 1.90 1.58 1.42 1.55 1.64 1.55 1.65 1.79 1.86 1.98 1.99 1.95 1.87 1.75 1.68 1.66 1.56 1.50 1.46 1.48 1.51 1.51 1.64 1.58 1.51 1.54
1.65 1.71 1.73 1.74 1.74 1.70 1.70 1.76 1.85 1.77 1.75 1.83 1.87 1.94 1.92 1.77 1.64 1.52 1.68 1.77 1.60 1.54 1.61 1.70 1.80 1.83 1.93 1.90 1.84 1.62 1.64 1.63 1.53 1.51 1.59 1.63 1.61 1.52 1.51 1.51 1.48 1.51 1.59
1.65 1.69 1.69 1.73 1.66 1.64 1.64 1.74 1.83 1.86 1.83 1.86 1.81 1.79 1.82 1.82 1.79 1.74 1.70 1.64 1.57 1.54 1.58 1.68 1.75 1.80 1.84 1.81 1.59 1.57 1.53 1.50 1.44 1.53 1.53 1.54 1.57 1.54 1.47 1.41 1.40 1.54 1.55
1.59 1.64 1.59 1.70 1.66 1.70 1.65 1.81 1.93 1.95 1.85 1.79 1.83 1.83 1.82 1.75 1.75 1.71 1.67 1.67 1.64 1.59 1.53 1.59 1.63 1.67 1.74 1.64 1.61 1.48 1.39 1.35 1.31 1.40 1.27 1.36 1.43 1.38 1.36 1.35 1.37 1.39 1.46
1.58 1.54 1.59 1.71 1.78 1.76 1.84 1.96 1.96 1.92 1.89 1.79 1.75 1.74 1.74 1.70 1.70 1.61 1.58 1.59 1.63 1.59 1.47 1.52 1.59 1.69 1.66 1.61 1.60 1.45 1.40 1.26 1.24 1.40 1.50 1.53 1.58 1.47 1.42 1.42 1.41 1.46 1.49
1.50 1.56 1.65 1.85 1.90 1.88 1.94 2.00 1.94 1.92 1.86 1.68 1.66 1.65 1.66 1.66 1.60 1.57 1.55 1.55 1.50 1.45 1.40 1.44 1.56 1.68 1.61 1.59 1.52 1.57 1.56 1.42 1.27 1.32 1.36 1.42 1.43 1.42 1.40 1.42 1.43 1.45 1.49
1.50 1.60 1.70 1.80 1.90 1.88 1.96 1.92 1.87 1.82 1.73 1.63 1.58 1.57 1.57 1.58 1.57 1.56 1.55 1.52 1.46 1.39 1.32 1.33 1.54 1.68 1.63 1.54 1.54 1.62 1.61 1.53 1.35 1.20 1.22 1.27 1.31 1.33 1.36 1.41 1.47 1.55 1.65
1.55 1.52 1.71 1.69 1.88 1.85 1.88 1.86 1.78 1.79 1.76 1.63 1.67 1.73 1.68 1.62 1.59 1.60 1.69 1.67 1.58 1.55 1.53 1.52 1.59 1.61 1.53 1.50 1.55 1.58 1.61 1.53 1.42 1.22 1.20 1.25 1.29 1.32 1.37 1.45 1.52 1.57 1.59
1.48 1.53 1.65 1.64 1.74 1.78 1.85 1.87 1.87 1.85 1.72 1.64 1.74 1.75 1.67 1.65 1.69 1.73 1.77 1.68 1.69 1.75 1.67 1.63 1.63 1.61 1.53 1.55 1.57 1.59 1.57 1.55 1.36 1.18 1.23 1.32 1.39 1.43 1.45 1.47 1.50 1.53 1.55
1.47 1.61 1.62 1.57 1.67 1.76 1.78 1.78 1.83 1.78 1.73 1.61 1.67 1.74 1.74 1.67 1.66 1.68 1.72 1.72 1.68 1.66 1.67 1.62 1.61 1.53 1.56 1.60 1.58 1.55 1.54 1.34 1.30 1.21 1.29 1.38 1.42 1.47 1.47 1.47 1.50 1.52 1.55
1.44 1.47 1.55 1.59 1.58 1.70 1.79 1.74 1.65 1.65 1.67 1.63 1.72 1.72 1.67 1.68 1.68 1.60 1.61 1.64 1.52 1.71 1.59 1.58 1.54 1.60 1.63 1.59 1.54 1.49 1.44 1.28 1.24 1.22 1.31 1.36 1.37 1.44 1.48 1.51 1.52 1.54 1.57
1.46 1.44 1.52 1.66 1.67 1.77 1.81 1.82 1.69 1.67 1.65 1.73 1.69 1.71 1.65 1.63 1.59 1.51 1.46 1.57 1.70 1.69 1.62 1.61 1.61 1.65 1.62 1.57 1.52 1.48 1.41 1.34 1.22 1.21 1.26 1.32 1.38 1.43 1.51 1.54 1.55 1.57 1.61
1.48 1.48 1.50 1.60 1.70 1.83 1.79 1.72 1.69 1.76 1.78 1.87 1.79 1.70 1.66 1.66 1.53 1.50 1.49 1.61 1.69 1.72 1.74 1.68 1.67 1.60 1.57 1.54 1.41 1.36 1.31 1.33 1.18 1.20 1.26 1.32 1.42 1.49 1.56 1.61 1.64 1.63 1.64
1.43 1.55 1.54 1.53 1.62 1.71 1.74 1.73 1.74 1.71 1.73 1.70 1.69 1.69 1.69 1.73 1.68 1.62 1.57 1.64 1.67 1.71 1.75 1.74 1.67 1.59 1.52 1.49 1.38 1.33 1.28 1.29 1.34 1.35 1.35 1.42 1.54 1.62 1.66 1.66 1.72 1.78 1.75
1.39 1.41 1.50 1.57 1.61 1.67 1.72 1.70 1.73 1.65 1.60 1.59 1.64 1.65 1.65 1.72 1.65 1.57 1.51 1.60 1.68 1.72 1.71 1.71 1.63 1.53 1.47 1.43 1.38 1.36 1.31 1.27 1.36 1.41 1.44 1.49 1.53 1.58 1.64 1.69 1.74 1.77 1.78
1.39 1.41 1.42 1.50 1.56 1.67 1.70 1.64 1.69 1.62 1.61 1.51 1.51 1.56 1.74 1.63 1.57 1.62 1.68 1.62 1.64 1.66 1.73 1.71 1.67 1.54 1.46 1.47 1.49 1.46 1.42 1.38 1.40 1.51 1.55 1.54 1.57 1.60 1.65 1.67 1.73 1.82 1.92
1.46 1.43 1.38 1.41 1.52 1.63 1.61 1.61 1.59 1.60 1.63 1.61 1.56 1.54 1.62 1.68 1.59 1.64 1.72 1.74 1.58 1.65 1.63 1.73 1.64 1.65 1.54 1.48 1.48 1.44 1.43 1.50 1.55 1.56 1.56 1.62 1.66 1.70 1.78 1.85 1.88 1.89 1.94
1.41 1.39 1.35 1.33 1.41 1.52 1.56 1.49 1.46 1.38 1.48 1.59 1.60 1.58 1.59 1.65 1.68 1.56 1.44 1.61 1.76 1.64 1.58 1.71 1.71 1.56 1.49 1.54 1.45 1.40 1.41 1.44 1.48 1.54 1.60 1.58 1.59 1.64 1.73 1.84 1.90 1.92 1.96
1.31 1.35 1.32 1.29 1.34 1.50 1.62 1.57 1.48 1.46 1.50 1.56 1.59 1.60 1.62 1.61 1.66 1.57 1.53 1.57 1.64 1.53 1.56 1.58 1.63 1.48 1.53 1.55 1.41 1.36 1.22 1.32 1.44 1.51 1.57 1.58 1.62 1.68 1.66 1.79 1.84 1.83 1.81
1.31 1.31 1.27 1.21 1.25 1.44 1.60 1.65 1.56 1.68 1.59 1.54 1.57 1.62 1.64 1.64 1.66 1.63 1.54 1.58 1.57 1.55 1.49 1.57 1.64 1.57 1.40 1.51 1.55 1.44 1.24 1.14 1.31 1.49 1.49 1.54 1.59 1.66 1.69 1.73 1.75 1.65 1.60
1.37 1.38 1.31 1.31 1.29 1.44 1.55 1.58 1.50 1.42 1.38 1.49 1.56 1.62 1.68 1.71 1.74 1.70 1.58 1.58 1.58 1.43 1.50 1.59 1.66 1.63 1.58 1.43 1.53 1.57 1.59 1.51 1.29 1.27 1.50 1.54 1.61 1.59 1.68 1.70 1.71 1.61 1.53
1.43 1.37 1.29 1.36 1.37 1.47 1.56 1.54 1.47 1.42 1.47 1.62 1.58 1.48 1.53 1.63 1.69 1.69 1.67 1.82 1.59 1.49 1.35 1.36 1.56 1.59 1.58 1.49 1.47 1.53 1.52 1.51 1.47 1.32 1.19 1.32 1.45 1.58 1.67 1.69 1.65 1.64 1.56
1.45 1.45 1.42 1.30 1.37 1.48 1.59 1.63 1.65 1.67 1.64 1.72 1.65 1.64 1.62 1.62 1.61 1.69 1.68 1.55 1.71 1.67 1.66 1.43 1.41 1.47 1.49 1.55 1.51 1.48 1.41 1.33 1.34 1.24 1.25 1.36 1.32 1.39 1.54 1.64 1.66 1.60 1.51

GFSSE_prec_pwat_123.txt.gz
Precipitable_Water
1.82 1.99 2.09 2.07 2.03 2.08 2.07 2.02 1.96 1.85 1.66 1.60 1.60 1.65 1.72 1.69 1.68 1.69 1.75 1.78 1.78 1.71 1.70 1.79 1.76 1.76 1.80 1.93 2.01 2.02 1.99 2.00 1.86 1.76 1.61 1.60 1.64 1.64 1.60 1.50 1.48 1.50 1.53
1.89 2.05 2.01 2.00 2.05 2.09 2.05 1.86 1.86 1.68 1.58 1.62 1.72 1.64 1.61 1.67 1.75 1.78 1.77 1.78 1.76 1.76 1.74 1.73 1.82 1.89 1.96 2.09 2.13 2.15 2.02 1.94 1.91 1.84 1.71 1.64 1.73 1.63 1.52 1.51 1.51 1.51 1.44
1.91 2.05 2.02 2.01 2.03 2.09 2.09 1.86 1.89 1.79 1.62 1.74 1.70 1.70 1.72 1.74 1.79 1.80 1.83 1.84 1.81 1.82 1.77 1.80 1.89 1.98 2.07 2.03 1.95 1.87 1.87 1.85 1.76 1.66 1.70 1.75 1.69 1.65 1.64 1.46 1.46 1.40 1.41
1.83 1.96 2.00 1.99 1.97 1.99 2.03 1.79 1.84 1.75 1.82 1.79 1.76 1.81 1.87 1.84 1.78 1.80 1.84 1.76 1.72 1.84 1.97 2.05 2.04 2.00 1.86 1.85 1.76 1.63 1.58 1.54 1.48 1.51 1.54 1.53 1.59 1.66 1.51 1.49 1.59 1.60 1.52
1.74 1.84 1.85 1.87 1.87 1.90 1.97 1.71 1.76 1.79 1.86 1.84 1.87 1.89 1.93 1.71 1.66 1.72 1.63 1.61 1.72 1.88 1.98 2.05 2.01 1.99 1.86 1.68 1.62 1.63 1.56 1.55 1.58 1.60 1.60 1.60 1.61 1.47 1.42 1.46 1.55 1.62 1.53
1.64 1.79 1.75 1.77 1.78 1.82 1.90 1.72 1.83 1.83 1.88 1.87 1.81 1.75 1.63 1.68 1.79 1.72 1.64 1.59 1.66 1.80 1.85 2.00 1.98 1.89 1.71 1.60 1.59 1.57 1.48 1.45 1.42 1.41 1.45 1.43 1.44 1.39 1.38 1.39 1.51 1.52 1.51
1.60 1.70 1.79 1.72 1.67 1.76 1.92 1.79 1.87 1.84 1.80 1.82 1.84 1.82 1.75 1.73 1.69 1.63 1.60 1.65 1.65 1.76 1.83 1.84 1.88 1.72 1.62 1.54 1.42 1.36 1.34 1.37 1.34 1.38 1.47 1.44 1.39 1.37 1.39 1.42 1.43 1.45 1.47
1.54 1.60 1.74 1.67 1.62 1.81 1.94 1.89 1.87 1.76 1.80 1.83 1.81 1.80 1.79 1.74 1.73 1.70 1.73 1.71 1.54 1.62 1.71 1.75 1.75 1.68 1.61 1.55 1.47 1.34 1.23 1.26 1.37 1.44 1.47 1.51 1.47 1.46 1.43 1.42 1.45 1.50 1.56
1.49 1.59 1.75 1.71 1.76 1.87 1.95 1.85 1.78 1.80 1.81 1.83 1.80 1.83 1.87 1.73 1.64 1.60 1.55 1.48 1.43 1.53 1.68 1.70 1.64 1.60 1.57 1.54 1.52 1.49 1.39 1.34 1.31 1.35 1.40 1.43 1.34 1.36 1.42 1.51 1.59 1.62 1.65
1.54 1.63 1.74 1.80 1.92 1.95 1.96 1.90 1.79 1.64 1.72 1.69 1.76 1.79 1.65 1.70 1.66 1.57 1.53 1.46 1.41 1.46 1.61 1.62 1.55 1.51 1.51 1.53 1.56 1.53 1.50 1.40 1.32 1.22 1.23 1.27 1.34 1.39 1.45 1.47 1.47 1.46 1.47
1.56 1.75 1.83 1.85 1.95 1.97 1.90 1.94 1.82 1.68 1.66 1.68 1.70 1.67 1.57 1.56 1.57 1.61 1.58 1.55 1.48 1.46 1.60 1.59 1.53 1.47 1.49 1.49 1.51 1.55 1.54 1.46 1.32 1.20 1.23 1.25 1.32 1.37 1.39 1.39 1.41 1.47 1.51
1.39 1.64 1.77 1.79 1.80 1.88 1.94 1.89 1.83 1.75 1.76 1.70 1.64 1.57 1.55 1.64 1.70 1.72 1.69 1.60 1.58 1.62 1.59 1.49 1.43 1.43 1.47 1.51 1.56 1.57 1.49 1.38 1.31 1.22 1.21 1.25 1.32 1.41 1.44 1.45 1.48 1.50 1.53
1.40 1.57 1.70 1.76 1.81 1.83 1.80 1.82 1.80 1.66 1.70 1.70 1.57 1.58 1.71 1.73 1.67 1.70 1.70 1.63 1.61 1.63 1.56 1.45 1.38 1.46 1.51 1.52 1.50 1.42 1.36 1.28 1.28 1.23 1.24 1.29 1.37 1.45 1.51 1.50 1.51 1.53 1.57
1.40 1.51 1.66 1.72 1.76 1.76 1.77 1.71 1.60 1.55 1.58 1.59 1.59 1.65 1.67 1.65 1.62 1.55 1.53 1.50 1.57 1.67 1.59 1.50 1.52 1.57 1.56 1.55 1.46 1.40 1.36 1.25 1.23 1.22 1.25 1.32 1.42 1.47 1.50 1.54 1.58 1.63 1.66
1.45 1.48 1.55 1.70 1.72 1.72 1.66 1.66 1.60 1.48 1.54 1.57 1.59 1.63 1.64 1.59 1.53 1.50 1.51 1.60 1.59 1.65 1.58 1.55 1.62 1.57 1.52 1.51 1.39 1.35 1.31 1.26 1.22 1.25 1.32 1.35 1.42 1.48 1.52 1.57 1.62 1.66 1.67
1.43 1.48 1.50 1.64 1.75 1.70 1.58 1.56 1.61 1.65 1.62 1.63 1.66 1.72 1.69 1.56 1.49 1.53 1.63 1.62 1.56 1.58 1.56 1.61 1.58 1.54 1.50 1.46 1.33 1.27 1.30 1.30 1.27 1.29 1.36 1.42 1.47 1.57 1.64 1.74 1.77 1.79 1.80
1.35 1.45 1.45 1.54 1.71 1.71 1.63 1.69 1.72 1.73 1.73 1.67 1.67 1.74 1.73 1.66 1.59 1.73 1.67 1.62 1.58 1.60 1.60 1.62 1.55 1.49 1.42 1.37 1.29 1.32 1.33 1.30 1.28 1.33 1.40 1.46 1.55 1.63 1.71 1.78 1.84 1.91 1.96
1.37 1.45 1.52 1.59 1.71 1.69 1.62 1.68 1.70 1.74 1.74 1.74 1.69 1.70 1.70 1.69 1.68 1.73 1.67 1.63 1.68 1.71 1.70 1.62 1.47 1.38 1.36 1.31 1.26 1.31 1.30 1.33 1.37 1.42 1.49 1.54 1.60 1.63 1.71 1.83 1.89 1.95 2.01
1.41 1.45 1.49 1.57 1.63 1.65 1.66 1.68 1.69 1.68 1.72 1.73 1.67 1.68 1.69 1.70 1.64 1.69 1.69 1.66 1.73 1.69 1.67 1.60 1.50 1.46 1.35 1.29 1.28 1.30 1.31 1.37 1.42 1.46 1.52 1.57 1.65 1.71 1.82 1.93 1.98 2.02 2.04
1.42 1.45 1.54 1.57 1.61 1.72 1.64 1.69 1.59 1.57 1.55 1.62 1.67 1.65 1.65 1.63 1.63 1.71 1.63 1.63 1.71 1.66 1.68 1.62 1.53 1.55 1.51 1.43 1.34 1.33 1.35 1.38 1.44 1.48 1.51 1.59 1.68 1.76 1.82 1.87 1.97 1.98 1.97
1.42 1.41 1.48 1.53 1.55 1.65 1.57 1.50 1.47 1.43 1.46 1.49 1.60 1.69 1.58 1.71 1.76 1.67 1.57 1.57 1.62 1.61 1.65 1.70 1.60 1.51 1.49 1.55 1.34 1.29 1.32 1.38 1.42 1.46 1.52 1.54 1.62 1.68 1.76 1.83 1.88 1.87 1.84
1.39 1.39 1.42 1.45 1.54 1.60 1.57 1.52 1.51 1.51 1.54 1.53 1.58 1.68 1.67 1.62 1.70 1.74 1.56 1.62 1.56 1.54 1.61 1.63 1.60 1.48 1.50 1.57 1.40 1.29 1.12 1.19 1.37 1.45 1.57 1.59 1.66 1.74 1.77 1.84 1.86 1.80 1.73
1.35 1.39 1.40 1.40 1.50 1.60 1.62 1.57 1.53 1.53 1.51 1.47 1.49 1.55 1.65 1.70 1.63 1.62 1.63 1.64 1.59 1.59 1.48 1.57 1.60 1.52 1.39 1.50 1.58 1.45 1.19 1.14 1.34 1.50 1.57 1.63 1.69 1.72 1.77 1.77 1.74 1.71 1.68
1.32 1.44 1.47 1.44 1.46 1.56 1.61 1.53 1.46 1.35 1.32 1.42 1.52 1.54 1.59 1.66 1.64 1.65 1.56 1.55 1.60 1.60 1.52 1.50 1.62 1.59 1.53 1.38 1.51 1.57 1.55 1.49 1.29 1.26 1.49 1.51 1.58 1.55 1.59 1.61 1.62 1.64 1.60
1.32 1.36 1.40 1.43 1.42 1.51 1.57 1.59 1.48 1.48 1.52 1.54 1.57 1.55 1.57 1.60 1.66 1.74 1.67 1.58 1.55 1.56 1.56 1.43 1.52 1.60 1.59 1.53 1.48 1.47 1.47 1.45 1.44 1.28 1.14 1.25 1.46 1.47 1.64 1.63 1.65 1.69 1.78
1.37 1.39 1.40 1.34 1.31 1.41 1.49 1.55 1.57 1.52 1.55 1.50 1.53 1.51 1.53 1.61 1.63 1.67 1.68 1.71 1.69 1.60 1.51 1.45 1.46 1.52 1.54 1.56 1.52 1.42 1.39 1.31 1.31 1.26 1.17 1.22 1.30 1.45 1.60 1.66 1.70 1.70 1.72